Time,TemperatureF,DewpointF,PressureIn,WindDirection,WindDirectionDegrees,WindSpeedMPH,WindSpeedGustMPH,Humidity,HourlyPrecipIn,Conditions,Clouds,dailyrainin,SolarRadiationWatts/m^2,SoftwareType,DateUTC
2013-01-02 00:00:00,65.1,61.8,30.08,South,175,0.0,0.0,89,0.00,,OVC045,0.00,0.00,VWS V14.01,2013-01-02 05:00:00,
2013-01-02 00:01:00,65.0,61.7,30.08,South,175,0.0,0.0,89,0.00,,OVC045,0.00,0.00,VWS V14.01,2013-01-02 05:01:00,
2013-01-02 00:02:00,65.0,61.7,30.08,South,175,0.0,0.0,89,0.00,,OVC045,0.00,0.00,VWS V14.01,2013-01-02 05:02:00,
2013-01-02 00:05:00,65.0,62.0,30.08,South,175,0.0,0.0,90,0.00,,OVC050,0.00,0.00,VWS V14.01,2013-01-02 05:05:00,
2013-01-02 00:07:00,64.9,61.9,30.07,South,175,0.0,0.0,90,0.00,,OVC045,0.00,0.00,VWS V14.01,2013-01-02 05:07:00,
2013-01-02 00:10:00,64.9,61.9,30.07,South,175,0.0,0.0,90,0.00,,OVC050,0.00,0.00,VWS V14.01,2013-01-02 05:10:00,
2013-01-02 00:12:00,64.8,61.8,30.07,South,175,0.0,0.0,90,0.00,,OVC045,0.00,0.00,VWS V14.01,2013-01-02 05:12:00,
2013-01-02 00:15:00,64.7,61.7,30.07,South,175,0.0,0.0,90,0.00,,OVC050,0.00,0.00,VWS V14.01,2013-01-02 05:15:00,
2013-01-02 00:17:00,64.7,61.7,30.07,South,175,0.0,0.0,90,0.00,,OVC045,0.00,0.00,VWS V14.01,2013-01-02 05:17:00,
2013-01-02 00:20:00,64.6,61.6,30.07,South,175,0.0,0.0,90,0.00,,OVC050,0.00,0.00,VWS V14.01,2013-01-02 05:20:00,
2013-01-02 00:22:00,64.5,61.5,30.07,South,175,0.0,0.0,90,0.00,,OVC045,0.00,0.00,VWS V14.01,2013-01-02 05:22:00,
2013-01-02 00:25:00,64.5,61.5,30.07,South,175,0.0,0.0,90,0.00,,OVC050,0.00,0.00,VWS V14.01,2013-01-02 05:25:00,
2013-01-02 00:27:00,64.5,61.5,30.07,South,175,0.0,0.0,90,0.00,,OVC045,0.00,0.00,VWS V14.01,2013-01-02 05:27:00,
2013-01-02 00:30:00,64.4,61.4,30.07,South,175,0.0,0.0,90,0.00,,OVC050,0.00,0.00,VWS V14.01,2013-01-02 05:30:00,
2013-01-02 00:32:00,64.3,61.3,30.07,South,175,0.0,0.0,90,0.00,,OVC045,0.00,0.00,VWS V14.01,2013-01-02 05:32:00,
2013-01-02 00:35:00,64.3,61.3,30.07,South,175,0.0,0.0,90,0.00,,OVC050,0.00,0.00,VWS V14.01,2013-01-02 05:35:00,
2013-01-02 00:37:00,64.3,61.6,30.07,South,175,0.0,0.0,91,0.00,,CLR,0.00,0.00,VWS V14.01,2013-01-02 05:37:00,
2013-01-02 00:40:00,64.2,61.5,30.07,South,175,0.0,0.0,91,0.00,,OVC050,0.00,0.00,VWS V14.01,2013-01-02 05:40:00,
2013-01-02 00:42:00,64.1,61.4,30.06,South,175,0.0,0.0,91,0.00,,CLR,0.00,0.00,VWS V14.01,2013-01-02 05:42:00,
2013-01-02 00:45:00,64.0,61.3,30.06,South,175,0.0,0.0,91,0.00,,OVC050,0.00,0.00,VWS V14.01,2013-01-02 05:45:00,
2013-01-02 00:47:00,64.0,61.3,30.06,South,175,0.0,0.0,91,0.00,,CLR,0.00,0.00,VWS V14.01,2013-01-02 05:47:00,
2013-01-02 00:50:00,63.9,61.2,30.06,South,175,0.0,0.0,91,0.00,,OVC050,0.00,0.00,VWS V14.01,2013-01-02 05:50:00,
2013-01-02 00:52:00,63.8,61.1,30.06,South,175,0.0,0.0,91,0.00,,CLR,0.00,0.00,VWS V14.01,2013-01-02 05:52:00,
2013-01-02 00:55:00,63.7,61.0,30.06,South,175,0.0,0.0,91,0.00,,OVC050,0.00,0.00,VWS V14.01,2013-01-02 05:55:00,
2013-01-02 00:57:00,63.7,61.0,30.06,South,175,0.0,0.0,91,0.00,,CLR,0.00,0.00,VWS V14.01,2013-01-02 05:57:00,
2013-01-02 01:00:00,63.6,60.9,30.06,South,175,0.0,0.0,91,0.00,,OVC050,0.00,0.00,VWS V14.01,2013-01-02 06:00:00,
2013-01-02 01:02:00,63.6,60.9,30.06,South,175,0.0,0.0,91,0.00,,CLR,0.00,0.00,VWS V14.01,2013-01-02 06:02:00,
2013-01-02 01:05:00,63.5,60.8,30.06,South,175,0.0,0.0,91,0.00,,OVC050,0.00,0.00,VWS V14.01,2013-01-02 06:05:00,
2013-01-02 01:07:00,63.5,60.8,30.06,South,175,0.0,0.0,91,0.00,,CLR,0.00,0.00,VWS V14.01,2013-01-02 06:07:00,
2013-01-02 01:10:00,63.5,60.8,30.06,South,175,0.0,0.0,91,0.00,,OVC050,0.00,0.00,VWS V14.01,2013-01-02 06:10:00,
2013-01-02 01:12:00,63.4,60.7,30.06,South,175,0.0,0.0,91,0.00,,CLR,0.00,0.00,VWS V14.01,2013-01-02 06:12:00,
2013-01-02 01:15:00,63.3,60.6,30.06,South,175,0.0,0.0,91,0.00,,OVC050,0.00,0.00,VWS V14.01,2013-01-02 06:15:00,
2013-01-02 01:17:00,63.3,60.6,30.06,South,175,0.0,0.0,91,0.00,,CLR,0.00,0.00,VWS V14.01,2013-01-02 06:17:00,
2013-01-02 01:20:00,63.2,60.5,30.06,South,175,0.0,0.0,91,0.00,,OVC050,0.00,0.00,VWS V14.01,2013-01-02 06:20:00,
2013-01-02 01:22:00,63.2,60.8,30.06,South,175,0.0,0.0,92,0.00,,CLR,0.00,0.00,VWS V14.01,2013-01-02 06:22:00,
2013-01-02 01:25:00,63.2,60.8,30.06,South,175,0.0,0.0,92,0.00,,OVC050,0.00,0.00,VWS V14.01,2013-01-02 06:25:00,
2013-01-02 01:27:00,63.2,60.8,30.06,South,175,0.0,0.0,92,0.00,,CLR,0.00,0.00,VWS V14.01,2013-01-02 06:27:00,
2013-01-02 01:30:00,63.1,60.7,30.06,South,175,0.0,0.0,92,0.00,,OVC050,0.00,0.00,VWS V14.01,2013-01-02 06:30:00,
2013-01-02 01:32:00,63.1,60.7,30.06,South,175,0.0,0.0,92,0.00,,CLR,0.00,0.00,VWS V14.01,2013-01-02 06:32:00,
2013-01-02 01:35:00,62.9,60.5,30.06,South,175,0.0,0.0,92,0.00,,OVC050,0.00,0.00,VWS V14.01,2013-01-02 06:35:00,
2013-01-02 01:37:00,62.9,60.5,30.06,South,175,0.0,0.0,92,0.00,,CLR,0.00,0.00,VWS V14.01,2013-01-02 06:37:00,
2013-01-02 01:40:00,62.9,60.5,30.06,South,175,0.0,0.0,92,0.00,,OVC050,0.00,0.00,VWS V14.01,2013-01-02 06:40:00,
2013-01-02 01:42:00,62.9,60.5,30.06,South,175,0.0,0.0,92,0.00,,CLR,0.00,0.00,VWS V14.01,2013-01-02 06:42:00,
2013-01-02 01:45:00,62.9,60.5,30.06,South,175,0.0,0.0,92,0.00,,OVC050,0.00,0.00,VWS V14.01,2013-01-02 06:45:00,
2013-01-02 01:47:00,62.9,60.5,30.06,South,175,0.0,0.0,92,0.00,,CLR,0.00,0.00,VWS V14.01,2013-01-02 06:47:00,
2013-01-02 01:50:00,62.9,60.5,30.06,South,175,0.0,0.0,92,0.00,,OVC050,0.00,0.00,VWS V14.01,2013-01-02 06:50:00,
2013-01-02 01:52:00,62.8,60.5,30.06,South,175,0.0,0.0,92,0.00,,CLR,0.00,0.00,VWS V14.01,2013-01-02 06:52:00,
2013-01-02 01:55:00,62.7,60.3,30.06,South,175,0.0,0.0,92,0.00,,OVC050,0.00,0.00,VWS V14.01,2013-01-02 06:55:00,
2013-01-02 01:57:00,62.7,60.3,30.06,South,175,0.0,0.0,92,0.00,,CLR,0.00,0.00,VWS V14.01,2013-01-02 06:57:00,
2013-01-02 02:00:00,62.5,60.2,30.06,South,175,0.0,0.0,92,0.00,,OVC050,0.00,0.00,VWS V14.01,2013-01-02 07:00:00,
2013-01-02 02:02:00,62.5,60.2,30.06,South,175,0.0,0.0,92,0.00,,CLR,0.00,0.00,VWS V14.01,2013-01-02 07:02:00,
2013-01-02 02:05:00,62.5,60.5,30.06,South,175,0.0,0.0,93,0.00,,OVC050,0.00,0.00,VWS V14.01,2013-01-02 07:05:00,
2013-01-02 02:07:00,62.4,60.3,30.06,South,175,0.0,0.0,93,0.00,,CLR,0.00,0.00,VWS V14.01,2013-01-02 07:07:00,
2013-01-02 02:10:00,62.4,60.3,30.06,South,175,0.0,0.0,93,0.00,,OVC050,0.00,0.00,VWS V14.01,2013-01-02 07:10:00,
2013-01-02 02:12:00,62.3,60.2,30.06,South,175,0.0,0.0,93,0.00,,CLR,0.00,0.00,VWS V14.01,2013-01-02 07:12:00,
2013-01-02 02:15:00,62.3,60.0,30.06,South,175,0.0,0.0,92,0.00,,OVC050,0.00,0.00,VWS V14.01,2013-01-02 07:15:00,
2013-01-02 02:17:00,62.2,60.2,30.06,South,175,0.0,0.0,93,0.00,,CLR,0.00,0.00,VWS V14.01,2013-01-02 07:17:00,
2013-01-02 02:20:00,62.2,59.8,30.06,South,175,0.0,0.0,92,0.00,,OVC050,0.00,0.00,VWS V14.01,2013-01-02 07:20:00,
2013-01-02 02:22:00,62.1,59.8,30.06,South,175,0.0,0.0,92,0.00,,CLR,0.00,0.00,VWS V14.01,2013-01-02 07:22:00,
2013-01-02 02:25:00,62.1,59.8,30.06,South,175,0.0,0.0,92,0.00,,OVC050,0.00,0.00,VWS V14.01,2013-01-02 07:25:00,
2013-01-02 02:27:00,62.0,59.7,30.06,South,175,0.0,0.0,92,0.00,,CLR,0.00,0.00,VWS V14.01,2013-01-02 07:27:00,
2013-01-02 02:30:00,62.0,60.0,30.06,South,175,0.0,0.0,93,0.00,,OVC050,0.00,0.00,VWS V14.01,2013-01-02 07:30:00,
2013-01-02 02:32:00,62.1,60.1,30.06,South,175,0.0,0.0,93,0.00,,CLR,0.00,0.00,VWS V14.01,2013-01-02 07:32:00,
2013-01-02 02:35:00,62.1,60.1,30.06,South,175,0.0,0.0,93,0.00,,OVC050,0.00,0.00,VWS V14.01,2013-01-02 07:35:00,
2013-01-02 02:37:00,62.1,60.1,30.06,South,175,0.0,0.0,93,0.00,,CLR,0.00,0.00,VWS V14.01,2013-01-02 07:37:00,
2013-01-02 02:40:00,62.1,60.1,30.06,South,175,0.0,0.0,93,0.00,,OVC050,0.00,0.00,VWS V14.01,2013-01-02 07:40:00,
2013-01-02 02:42:00,62.0,60.0,30.06,South,175,0.0,0.0,93,0.00,,CLR,0.00,0.00,VWS V14.01,2013-01-02 07:42:00,
2013-01-02 02:45:00,62.0,60.0,30.06,South,175,0.0,0.0,93,0.00,,OVC050,0.00,0.00,VWS V14.01,2013-01-02 07:45:00,
2013-01-02 02:47:00,61.8,59.8,30.06,South,175,0.0,0.0,93,0.00,,CLR,0.00,0.00,VWS V14.01,2013-01-02 07:47:00,
2013-01-02 02:50:00,61.8,59.8,30.06,South,175,0.0,0.0,93,0.00,,OVC050,0.00,0.00,VWS V14.01,2013-01-02 07:50:00,
2013-01-02 02:52:00,61.7,59.7,30.06,South,175,0.0,0.0,93,0.00,,CLR,0.00,0.00,VWS V14.01,2013-01-02 07:52:00,
2013-01-02 02:55:00,61.7,59.7,30.06,South,175,0.0,0.0,93,0.00,,OVC050,0.00,0.00,VWS V14.01,2013-01-02 07:55:00,
2013-01-02 02:57:00,61.7,59.7,30.06,South,175,0.0,0.0,93,0.00,,CLR,0.00,0.00,VWS V14.01,2013-01-02 07:57:00,
2013-01-02 03:00:00,61.7,59.7,30.06,South,175,0.0,0.0,93,0.00,,OVC050,0.00,0.00,VWS V14.01,2013-01-02 08:00:00,
2013-01-02 03:02:00,61.7,59.7,30.06,South,175,0.0,0.0,93,0.00,,CLR,0.00,0.00,VWS V14.01,2013-01-02 08:02:00,
2013-01-02 03:05:00,61.8,59.8,30.06,South,175,0.0,0.0,93,0.00,,OVC050,0.00,0.00,VWS V14.01,2013-01-02 08:05:00,
2013-01-02 03:09:00,61.9,60.2,30.06,South,175,0.0,0.0,94,0.00,,CLR,0.00,0.00,VWS V14.01,2013-01-02 08:09:00,
2013-01-02 03:10:00,62.0,60.3,30.06,South,175,0.0,0.0,94,0.00,,OVC050,0.00,0.00,VWS V14.01,2013-01-02 08:10:00,
2013-01-02 03:14:00,62.0,60.3,30.06,South,175,0.0,0.0,94,0.00,,CLR,0.00,0.00,VWS V14.01,2013-01-02 08:14:00,
2013-01-02 03:15:00,62.0,60.3,30.06,South,175,0.0,0.0,94,0.00,,OVC050,0.00,0.00,VWS V14.01,2013-01-02 08:15:00,
2013-01-02 03:19:00,62.2,60.5,30.06,South,175,0.0,0.0,94,0.00,,CLR,0.00,0.00,VWS V14.01,2013-01-02 08:19:00,
2013-01-02 03:20:00,62.2,60.5,30.06,South,175,0.0,0.0,94,0.00,,OVC050,0.00,0.00,VWS V14.01,2013-01-02 08:20:00,
2013-01-02 03:24:00,62.3,60.6,30.06,South,175,0.0,0.0,94,0.00,,CLR,0.00,0.00,VWS V14.01,2013-01-02 08:24:00,
2013-01-02 03:25:00,62.3,60.6,30.06,South,175,0.0,0.0,94,0.00,,OVC050,0.00,0.00,VWS V14.01,2013-01-02 08:25:00,
2013-01-02 03:29:00,62.3,60.2,30.06,South,175,0.0,0.0,93,0.00,,CLR,0.00,0.00,VWS V14.01,2013-01-02 08:29:00,
2013-01-02 03:30:00,62.3,60.3,30.06,South,175,0.0,0.0,93,0.00,,OVC050,0.00,0.00,VWS V14.01,2013-01-02 08:30:00,
2013-01-02 03:34:00,62.3,60.2,30.06,South,175,0.0,0.0,93,0.00,,CLR,0.00,0.00,VWS V14.01,2013-01-02 08:34:00,
2013-01-02 03:35:00,62.3,60.3,30.06,South,175,0.0,0.0,93,0.00,,OVC050,0.00,0.00,VWS V14.01,2013-01-02 08:35:00,
2013-01-02 03:39:00,62.4,60.3,30.05,South,175,0.0,0.0,93,0.00,,CLR,0.00,0.00,VWS V14.01,2013-01-02 08:39:00,
2013-01-02 03:40:00,62.3,60.3,30.05,South,175,0.0,0.0,93,0.00,,OVC050,0.00,0.00,VWS V14.01,2013-01-02 08:40:00,
2013-01-02 03:44:00,62.4,60.3,30.06,South,175,0.0,0.0,93,0.00,,CLR,0.00,0.00,VWS V14.01,2013-01-02 08:44:00,
2013-01-02 03:45:00,62.4,60.3,30.06,South,175,0.0,0.0,93,0.00,,OVC050,0.00,0.00,VWS V14.01,2013-01-02 08:45:00,
2013-01-02 03:49:00,62.5,60.5,30.06,South,175,0.0,0.0,93,0.00,,CLR,0.00,0.00,VWS V14.01,2013-01-02 08:49:00,
2013-01-02 03:50:00,62.5,60.5,30.06,South,175,0.0,0.0,93,0.00,,OVC050,0.00,0.00,VWS V14.01,2013-01-02 08:50:00,
2013-01-02 03:54:00,62.4,60.3,30.06,South,175,0.0,0.0,93,0.00,,CLR,0.00,0.00,VWS V14.01,2013-01-02 08:54:00,
2013-01-02 03:55:00,62.5,60.5,30.06,South,175,0.0,0.0,93,0.00,,OVC050,0.00,0.00,VWS V14.01,2013-01-02 08:55:00,
2013-01-02 03:59:00,62.4,60.3,30.06,South,175,0.0,0.0,93,0.00,,CLR,0.00,0.00,VWS V14.01,2013-01-02 08:59:00,
2013-01-02 04:00:00,62.4,60.3,30.06,South,175,0.0,0.0,93,0.00,,OVC050,0.00,0.00,VWS V14.01,2013-01-02 09:00:00,
2013-01-02 04:04:00,62.4,60.3,30.06,South,175,0.0,0.0,93,0.00,,CLR,0.00,0.00,VWS V14.01,2013-01-02 09:04:00,
2013-01-02 04:05:00,62.3,60.3,30.06,South,175,0.0,0.0,93,0.00,,OVC050,0.00,0.00,VWS V14.01,2013-01-02 09:05:00,
2013-01-02 04:09:00,62.3,60.2,30.06,South,175,0.0,0.0,93,0.00,,CLR,0.00,0.00,VWS V14.01,2013-01-02 09:09:00,
2013-01-02 04:10:00,62.3,60.3,30.06,South,175,0.0,0.0,93,0.00,,OVC050,0.00,0.00,VWS V14.01,2013-01-02 09:10:00,
2013-01-02 04:14:00,62.3,60.2,30.06,South,175,0.0,0.0,93,0.00,,CLR,0.00,0.00,VWS V14.01,2013-01-02 09:14:00,
2013-01-02 04:15:00,62.3,60.3,30.06,South,175,0.0,0.0,93,0.00,,OVC050,0.00,0.00,VWS V14.01,2013-01-02 09:15:00,
2013-01-02 04:19:00,62.3,60.2,30.06,South,175,0.0,0.0,93,0.00,,CLR,0.00,0.00,VWS V14.01,2013-01-02 09:19:00,
2013-01-02 04:20:00,62.3,60.3,30.06,South,175,0.0,0.0,93,0.00,,OVC050,0.00,0.00,VWS V14.01,2013-01-02 09:20:00,
2013-01-02 04:24:00,62.3,60.2,30.06,South,175,0.0,0.0,93,0.00,,CLR,0.00,0.00,VWS V14.01,2013-01-02 09:24:00,
2013-01-02 04:25:00,62.3,60.3,30.06,South,175,0.0,0.0,93,0.00,,OVC050,0.00,0.00,VWS V14.01,2013-01-02 09:25:00,
2013-01-02 04:29:00,62.3,60.2,30.06,South,175,0.0,0.0,93,0.00,,CLR,0.00,0.00,VWS V14.01,2013-01-02 09:29:00,
2013-01-02 04:30:00,62.3,60.3,30.06,South,175,0.0,0.0,93,0.00,,OVC050,0.00,0.00,VWS V14.01,2013-01-02 09:30:00,
2013-01-02 04:34:00,62.4,60.7,30.06,South,175,0.0,0.0,94,0.00,,CLR,0.00,0.00,VWS V14.01,2013-01-02 09:34:00,
2013-01-02 04:35:00,62.5,60.8,30.06,South,175,0.0,0.0,94,0.00,,OVC050,0.00,0.00,VWS V14.01,2013-01-02 09:35:00,
2013-01-02 04:39:00,62.6,60.8,30.06,South,175,0.0,0.0,94,0.00,,CLR,0.00,0.00,VWS V14.01,2013-01-02 09:39:00,
2013-01-02 04:40:00,62.6,60.8,30.06,South,175,0.0,0.0,94,0.00,,OVC050,0.00,0.00,VWS V14.01,2013-01-02 09:40:00,
2013-01-02 04:44:00,62.7,61.0,30.06,South,175,0.0,0.0,94,0.00,,SCT044,0.00,0.00,VWS V14.01,2013-01-02 09:44:00,
2013-01-02 04:45:00,62.8,61.0,30.06,South,175,0.0,0.0,94,0.00,,OVC050,0.00,0.00,VWS V14.01,2013-01-02 09:45:00,
2013-01-02 04:49:00,62.9,61.2,30.06,South,175,0.0,0.0,94,0.00,,SCT044,0.00,0.00,VWS V14.01,2013-01-02 09:49:00,
2013-01-02 04:50:00,62.9,61.2,30.06,South,175,0.0,0.0,94,0.00,,OVC050,0.00,0.00,VWS V14.01,2013-01-02 09:50:00,
2013-01-02 04:54:00,63.1,61.3,30.06,South,175,0.0,0.0,94,0.00,,SCT044,0.00,0.00,VWS V14.01,2013-01-02 09:54:00,
2013-01-02 04:55:00,63.1,61.3,30.06,South,175,0.0,0.0,94,0.00,,OVC050,0.00,0.00,VWS V14.01,2013-01-02 09:55:00,
2013-01-02 04:59:00,63.2,61.5,30.06,South,175,0.0,0.0,94,0.00,,SCT044,0.00,0.00,VWS V14.01,2013-01-02 09:59:00,
2013-01-02 05:00:00,63.2,61.5,30.06,South,175,0.0,0.0,94,0.00,,OVC050,0.00,0.00,VWS V14.01,2013-01-02 10:00:00,
2013-01-02 05:04:00,63.2,61.2,30.06,South,175,0.0,0.0,93,0.00,,SCT044,0.00,0.00,VWS V14.01,2013-01-02 10:04:00,
2013-01-02 05:05:00,63.2,61.5,30.06,South,175,0.0,0.0,94,0.00,,OVC050,0.00,0.00,VWS V14.01,2013-01-02 10:05:00,
2013-01-02 05:09:00,63.4,61.3,30.06,South,175,0.0,0.0,93,0.00,,SCT044,0.00,0.00,VWS V14.01,2013-01-02 10:09:00,
2013-01-02 05:10:00,63.4,61.3,30.06,South,175,0.0,0.0,93,0.00,,OVC050,0.00,0.00,VWS V14.01,2013-01-02 10:10:00,
2013-01-02 05:14:00,63.4,61.3,30.06,South,175,0.0,0.0,93,0.00,,SCT044,0.00,0.00,VWS V14.01,2013-01-02 10:14:00,
2013-01-02 05:15:00,63.5,61.4,30.06,South,175,0.0,0.0,93,0.00,,OVC050,0.00,0.00,VWS V14.01,2013-01-02 10:15:00,
2013-01-02 05:19:00,63.5,61.4,30.06,South,175,0.0,0.0,93,0.00,,SCT044,0.00,0.00,VWS V14.01,2013-01-02 10:19:00,
2013-01-02 05:20:00,63.5,61.4,30.06,South,175,0.0,0.0,93,0.00,,OVC050,0.00,0.00,VWS V14.01,2013-01-02 10:20:00,
2013-01-02 05:24:00,63.6,61.5,30.06,South,175,0.0,0.0,93,0.00,,SCT044,0.00,0.00,VWS V14.01,2013-01-02 10:24:00,
2013-01-02 05:25:00,63.5,61.4,30.06,South,175,0.0,0.0,93,0.00,,OVC050,0.00,0.00,VWS V14.01,2013-01-02 10:25:00,
2013-01-02 05:29:00,63.5,61.4,30.06,South,175,0.0,0.0,93,0.00,,SCT044,0.00,0.00,VWS V14.01,2013-01-02 10:29:00,
2013-01-02 05:30:00,63.5,61.4,30.06,South,175,0.0,0.0,93,0.00,,OVC050,0.00,0.00,VWS V14.01,2013-01-02 10:30:00,
2013-01-02 05:35:00,63.4,61.3,30.06,South,175,0.0,0.0,93,0.00,,SCT044,0.00,0.00,VWS V14.01,2013-01-02 10:35:00,
2013-01-02 05:40:00,63.1,61.0,30.06,South,175,0.0,0.0,93,0.00,,OVC046,0.00,0.00,VWS V14.01,2013-01-02 10:40:00,
2013-01-02 05:45:00,63.0,61.0,30.06,South,175,0.0,0.0,93,0.00,,OVC046,0.00,0.00,VWS V14.01,2013-01-02 10:45:00,
2013-01-02 05:50:00,62.8,60.8,30.07,South,175,0.0,0.0,93,0.00,,OVC046,0.00,0.00,VWS V14.01,2013-01-02 10:50:00,
2013-01-02 05:55:00,62.6,60.5,30.07,South,175,0.0,0.0,93,0.00,,OVC046,0.00,0.00,VWS V14.01,2013-01-02 10:55:00,
2013-01-02 06:00:00,62.5,60.5,30.07,South,175,0.0,0.0,93,0.00,,OVC046,0.00,0.00,VWS V14.01,2013-01-02 11:00:00,
2013-01-02 06:05:00,62.3,60.2,30.07,South,175,0.0,0.0,93,0.00,,OVC046,0.00,0.00,VWS V14.01,2013-01-02 11:05:00,
2013-01-02 06:10:00,62.2,60.2,30.07,South,175,0.0,0.0,93,0.00,,OVC046,0.00,0.00,VWS V14.01,2013-01-02 11:10:00,
2013-01-02 06:15:00,62.2,60.2,30.08,South,175,0.0,0.0,93,0.00,,OVC046,0.00,0.00,VWS V14.01,2013-01-02 11:15:00,
2013-01-02 06:20:00,62.1,60.4,30.08,South,175,0.0,0.0,94,0.00,,OVC046,0.00,0.00,VWS V14.01,2013-01-02 11:20:00,
2013-01-02 06:25:00,61.9,59.9,30.08,South,175,0.0,0.0,93,0.00,,OVC046,0.00,0.00,VWS V14.01,2013-01-02 11:25:00,
2013-01-02 06:30:00,61.8,60.1,30.08,South,175,2.0,2.0,94,0.00,,OVC046,0.00,0.00,VWS V14.01,2013-01-02 11:30:00,
2013-01-02 06:35:00,61.8,60.1,30.08,South,175,1.0,1.0,94,0.00,,OVC046,0.00,0.00,VWS V14.01,2013-01-02 11:35:00,
2013-01-02 06:40:00,61.7,60.0,30.08,South,175,0.0,0.0,94,0.00,,CLR,0.00,0.00,VWS V14.01,2013-01-02 11:40:00,
2013-01-02 06:45:00,61.5,59.8,30.08,South,175,0.0,0.0,94,0.00,,CLR,0.00,0.00,VWS V14.01,2013-01-02 11:45:00,
2013-01-02 06:50:00,61.4,59.7,30.08,South,175,0.0,0.0,94,0.00,,CLR,0.00,0.00,VWS V14.01,2013-01-02 11:50:00,
2013-01-02 06:55:00,61.4,59.7,30.08,South,175,0.0,0.0,94,0.00,,CLR,0.00,0.00,VWS V14.01,2013-01-02 11:55:00,
2013-01-02 07:00:00,61.2,59.5,30.08,South,175,0.0,0.0,94,0.00,,CLR,0.00,0.00,VWS V14.01,2013-01-02 12:00:00,
2013-01-02 07:05:00,61.1,59.4,30.08,South,175,0.0,0.0,94,0.00,,CLR,0.00,0.00,VWS V14.01,2013-01-02 12:05:00,
2013-01-02 07:10:00,61.0,59.3,30.08,South,175,0.0,0.0,94,0.00,,CLR,0.00,5.00,VWS V14.01,2013-01-02 12:10:00,
2013-01-02 07:15:00,61.0,59.3,30.08,South,175,0.0,0.0,94,0.00,,CLR,0.00,7.00,VWS V14.01,2013-01-02 12:15:00,
2013-01-02 07:20:00,61.0,59.3,30.08,South,175,0.0,0.0,94,0.00,,CLR,0.00,11.00,VWS V14.01,2013-01-02 12:20:00,
2013-01-02 07:25:00,61.0,59.6,30.08,South,175,0.0,0.0,95,0.00,,CLR,0.00,14.00,VWS V14.01,2013-01-02 12:25:00,
2013-01-02 07:30:00,61.1,59.7,30.08,South,175,0.0,0.0,95,0.00,,CLR,0.00,18.00,VWS V14.01,2013-01-02 12:30:00,
2013-01-02 07:35:00,61.1,59.7,30.08,South,175,0.0,0.0,95,0.00,,CLR,0.00,21.00,VWS V14.01,2013-01-02 12:35:00,
2013-01-02 07:40:00,61.2,59.8,30.08,South,175,0.0,0.0,95,0.00,,CLR,0.00,25.00,VWS V14.01,2013-01-02 12:40:00,
2013-01-02 07:45:00,61.3,59.9,30.08,South,175,0.0,0.0,95,0.00,,OVC050,0.00,28.00,VWS V14.01,2013-01-02 12:45:00,
2013-01-02 07:46:00,61.4,60.0,30.08,South,175,0.0,0.0,95,0.00,,CLR,0.00,30.00,VWS V14.01,2013-01-02 12:46:00,
2013-01-02 07:50:00,61.5,60.1,30.08,South,175,0.0,0.0,95,0.00,,OVC050,0.00,39.00,VWS V14.01,2013-01-02 12:50:00,
2013-01-02 07:51:00,61.6,60.2,30.09,South,175,0.0,0.0,95,0.00,,CLR,0.00,56.00,VWS V14.01,2013-01-02 12:51:00,
2013-01-02 07:55:00,61.8,60.4,30.09,South,175,0.0,0.0,95,0.00,,OVC050,0.00,70.00,VWS V14.01,2013-01-02 12:55:00,
2013-01-02 07:56:00,62.0,60.6,30.09,South,175,0.0,0.0,95,0.00,,CLR,0.00,74.00,VWS V14.01,2013-01-02 12:56:00,
2013-01-02 08:00:00,62.5,61.3,30.09,South,175,0.0,0.0,96,0.00,,OVC050,0.00,84.00,VWS V14.01,2013-01-02 13:00:00,
2013-01-02 08:01:00,62.7,61.5,30.09,South,175,0.0,0.0,96,0.00,,CLR,0.00,88.00,VWS V14.01,2013-01-02 13:01:00,
2013-01-02 08:05:00,63.2,62.0,30.09,South,175,0.0,0.0,96,0.00,,OVC050,0.00,69.00,VWS V14.01,2013-01-02 13:05:00,
2013-01-02 08:06:00,63.4,62.0,30.09,South,175,0.0,0.0,95,0.00,,CLR,0.00,63.00,VWS V14.01,2013-01-02 13:06:00,
2013-01-02 08:10:00,64.0,62.5,30.09,South,175,1.0,1.0,95,0.00,,OVC050,0.00,118.00,VWS V14.01,2013-01-02 13:10:00,
2013-01-02 08:11:00,64.2,62.7,30.09,South,175,1.0,1.0,95,0.00,,CLR,0.00,120.00,VWS V14.01,2013-01-02 13:11:00,
2013-01-02 08:15:00,64.8,63.3,30.09,South,175,0.0,0.0,95,0.00,,OVC050,0.00,134.00,VWS V14.01,2013-01-02 13:15:00,
2013-01-02 08:16:00,65.1,63.6,30.09,South,175,0.0,0.0,95,0.00,,CLR,0.00,135.00,VWS V14.01,2013-01-02 13:16:00,
2013-01-02 08:20:00,65.7,63.9,30.09,South,175,0.0,0.0,94,0.00,,OVC050,0.00,146.00,VWS V14.01,2013-01-02 13:20:00,
2013-01-02 08:21:00,65.9,63.8,30.09,South,175,0.0,0.0,93,0.00,,CLR,0.00,153.00,VWS V14.01,2013-01-02 13:21:00,
2013-01-02 08:25:00,66.5,64.1,30.09,South,175,0.0,0.0,92,0.00,,OVC050,0.00,163.00,VWS V14.01,2013-01-02 13:25:00,
2013-01-02 08:26:00,66.8,64.4,30.09,South,175,0.0,0.0,92,0.00,,CLR,0.00,167.00,VWS V14.01,2013-01-02 13:26:00,
2013-01-02 08:30:00,67.3,64.3,30.10,South,175,0.0,0.0,90,0.00,,OVC050,0.00,179.00,VWS V14.01,2013-01-02 13:30:00,
2013-01-02 08:31:00,67.6,64.6,30.09,South,175,0.0,0.0,90,0.00,,CLR,0.00,183.00,VWS V14.01,2013-01-02 13:31:00,
2013-01-02 08:35:00,75.5,67.4,30.11,South,183,2.0,5.0,76,0.00,,CLR,0.00,385.00,VWS V14.01,2013-01-02 13:35:00,
2013-01-02 08:36:00,68.3,64.9,30.10,South,175,0.0,0.0,89,0.00,,CLR,0.00,209.00,VWS V14.01,2013-01-02 13:36:00,
2013-01-02 08:40:00,69.0,65.3,30.10,South,175,0.0,0.0,88,0.00,,OVC050,0.00,221.00,VWS V14.01,2013-01-02 13:40:00,
2013-01-02 08:41:00,69.3,65.6,30.10,South,175,0.0,1.0,88,0.00,,CLR,0.00,229.00,VWS V14.01,2013-01-02 13:41:00,
2013-01-02 08:45:00,70.1,65.7,30.10,South,175,1.0,2.0,86,0.00,,OVC050,0.00,239.00,VWS V14.01,2013-01-02 13:45:00,
2013-01-02 08:46:00,70.4,66.0,30.10,South,175,0.0,1.0,86,0.00,,CLR,0.00,241.00,VWS V14.01,2013-01-02 13:46:00,
2013-01-02 08:50:00,71.1,66.4,30.10,South,175,1.0,1.0,85,0.00,,OVC050,0.00,251.00,VWS V14.01,2013-01-02 13:50:00,
2013-01-02 08:51:00,71.4,66.3,30.10,South,175,2.0,2.0,84,0.00,,CLR,0.00,253.00,VWS V14.01,2013-01-02 13:51:00,
2013-01-02 08:55:00,72.0,66.6,30.10,South,175,1.0,2.0,83,0.00,,OVC050,0.00,262.00,VWS V14.01,2013-01-02 13:55:00,
2013-01-02 08:56:00,72.2,66.8,30.10,South,175,1.0,2.0,83,0.00,,CLR,0.00,265.00,VWS V14.01,2013-01-02 13:56:00,
2013-01-02 09:00:00,72.9,66.7,30.10,SSW,199,1.0,1.0,81,0.00,,BKN060,0.00,278.00,VWS V14.01,2013-01-02 14:00:00,
2013-01-02 09:01:00,73.0,66.8,30.10,SSW,198,5.0,5.0,81,0.00,,CLR,0.00,279.00,VWS V14.01,2013-01-02 14:01:00,
2013-01-02 09:05:00,73.4,67.2,30.10,South,173,4.0,4.0,81,0.00,,BKN060,0.00,292.00,VWS V14.01,2013-01-02 14:05:00,
2013-01-02 09:06:00,73.5,67.0,30.10,South,173,2.0,4.0,80,0.00,,CLR,0.00,297.00,VWS V14.01,2013-01-02 14:06:00,
2013-01-02 09:10:00,73.9,67.0,30.10,SSW,203,4.0,4.0,79,0.00,,BKN060,0.00,309.00,VWS V14.01,2013-01-02 14:10:00,
2013-01-02 09:11:00,74.0,67.4,30.10,SSW,207,1.0,4.0,80,0.00,,CLR,0.00,315.00,VWS V14.01,2013-01-02 14:11:00,
2013-01-02 09:15:00,74.4,67.1,30.10,SSW,202,3.0,5.0,78,0.00,,BKN060,0.00,323.00,VWS V14.01,2013-01-02 14:15:00,
2013-01-02 09:16:00,74.5,67.6,30.11,SW,224,2.0,3.0,79,0.00,,CLR,0.00,329.00,VWS V14.01,2013-01-02 14:16:00,
2013-01-02 09:20:00,74.8,67.5,30.11,South,185,6.0,6.0,78,0.00,,BKN060,0.00,341.00,VWS V14.01,2013-01-02 14:20:00,
2013-01-02 09:21:00,74.8,67.1,30.11,SSW,202,4.0,6.0,77,0.00,,CLR,0.00,343.00,VWS V14.01,2013-01-02 14:21:00,
2013-01-02 09:25:00,75.0,67.3,30.10,SSE,159,3.0,5.0,77,0.00,,BKN060,0.00,352.00,VWS V14.01,2013-01-02 14:25:00,
2013-01-02 09:26:00,75.0,67.3,30.11,South,178,2.0,4.0,77,0.00,,CLR,0.00,357.00,VWS V14.01,2013-01-02 14:26:00,
2013-01-02 09:30:00,75.3,67.2,30.11,SW,221,3.0,6.0,76,0.00,,BKN060,0.00,364.00,VWS V14.01,2013-01-02 14:30:00,
2013-01-02 09:31:00,75.3,67.2,30.11,SSW,198,6.0,6.0,76,0.00,,CLR,0.00,332.00,VWS V14.01,2013-01-02 14:31:00,
2013-01-02 09:35:00,75.5,67.4,30.11,South,183,2.0,5.0,76,0.00,,BKN060,0.00,385.00,VWS V14.01,2013-01-02 14:35:00,
2013-01-02 09:36:00,75.6,67.5,30.11,South,169,2.0,4.0,76,0.00,,CLR,0.00,359.00,VWS V14.01,2013-01-02 14:36:00,
2013-01-02 09:40:00,75.8,67.3,30.11,SSE,157,3.0,5.0,75,0.00,,BKN060,0.00,394.00,VWS V14.01,2013-01-02 14:40:00,
2013-01-02 09:41:00,75.9,67.4,30.11,SSW,198,3.0,6.0,75,0.00,,CLR,0.00,411.00,VWS V14.01,2013-01-02 14:41:00,
2013-01-02 09:45:00,76.2,67.3,30.11,SSW,209,4.0,5.0,74,0.00,,BKN060,0.00,439.00,VWS V14.01,2013-01-02 14:45:00,
2013-01-02 09:46:00,76.4,67.9,30.11,South,171,5.0,7.0,75,0.00,,CLR,0.00,439.00,VWS V14.01,2013-01-02 14:46:00,
2013-01-02 09:50:00,76.6,67.7,30.11,SSE,157,2.0,3.0,74,0.00,,BKN060,0.00,457.00,VWS V14.01,2013-01-02 14:50:00,
2013-01-02 09:51:00,76.6,67.3,30.11,South,185,5.0,7.0,73,0.00,,CLR,0.00,457.00,VWS V14.01,2013-01-02 14:51:00,
2013-01-02 09:55:00,76.6,67.3,30.11,SSW,213,2.0,6.0,73,0.00,,BKN060,0.00,499.00,VWS V14.01,2013-01-02 14:55:00,
2013-01-02 09:56:00,76.7,67.4,30.11,SSW,213,1.0,4.0,73,0.00,,CLR,0.00,503.00,VWS V14.01,2013-01-02 14:56:00,
2013-01-02 10:00:00,76.8,67.1,30.11,WSW,240,5.0,6.0,72,0.00,,BKN060,0.00,190.00,VWS V14.01,2013-01-02 15:00:00,
2013-01-02 10:01:00,76.7,67.0,30.11,SSW,206,4.0,6.0,72,0.00,,CLR,0.00,279.00,VWS V14.01,2013-01-02 15:01:00,
2013-01-02 10:05:00,76.7,67.0,30.11,WSW,245,4.0,6.0,72,0.00,,BKN060,0.00,501.00,VWS V14.01,2013-01-02 15:05:00,
2013-01-02 10:06:00,76.9,67.2,30.11,South,188,4.0,5.0,72,0.00,,CLR,0.00,462.00,VWS V14.01,2013-01-02 15:06:00,
2013-01-02 10:10:00,76.9,67.6,30.11,WSW,238,2.0,4.0,73,0.00,,BKN060,0.00,468.00,VWS V14.01,2013-01-02 15:10:00,
2013-01-02 10:11:00,77.2,67.5,30.11,SW,226,2.0,6.0,72,0.00,,CLR,0.00,468.00,VWS V14.01,2013-01-02 15:11:00,
2013-01-02 10:15:00,77.5,66.9,30.11,SW,224,2.0,4.0,70,0.00,,BKN060,0.00,285.00,VWS V14.01,2013-01-02 15:15:00,
2013-01-02 10:16:00,77.5,66.9,30.11,SW,231,4.0,7.0,70,0.00,,CLR,0.00,258.00,VWS V14.01,2013-01-02 15:16:00,
2013-01-02 10:20:00,77.4,66.9,30.11,WSW,237,3.0,4.0,70,0.00,,BKN060,0.00,207.00,VWS V14.01,2013-01-02 15:20:00,
2013-01-02 10:21:00,77.4,66.9,30.11,WSW,241,4.0,4.0,70,0.00,,CLR,0.00,202.00,VWS V14.01,2013-01-02 15:21:00,
2013-01-02 10:25:00,77.2,66.7,30.11,SW,220,4.0,4.0,70,0.00,,BKN060,0.00,190.00,VWS V14.01,2013-01-02 15:25:00,
2013-01-02 10:26:00,77.1,66.6,30.11,South,190,5.0,7.0,70,0.00,,CLR,0.00,188.00,VWS V14.01,2013-01-02 15:26:00,
2013-01-02 10:30:00,76.9,66.8,30.11,SW,217,2.0,3.0,71,0.00,,BKN060,0.00,165.00,VWS V14.01,2013-01-02 15:30:00,
2013-01-02 10:31:00,76.9,66.8,30.11,SW,234,2.0,3.0,71,0.00,,CLR,0.00,163.00,VWS V14.01,2013-01-02 15:31:00,
2013-01-02 10:35:00,76.7,66.2,30.11,SW,217,3.0,4.0,70,0.00,,BKN060,0.00,178.00,VWS V14.01,2013-01-02 15:35:00,
2013-01-02 10:36:00,76.6,66.5,30.11,WSW,242,0.0,5.0,71,0.00,,CLR,0.00,185.00,VWS V14.01,2013-01-02 15:36:00,
2013-01-02 10:40:00,76.6,66.9,30.11,South,188,3.0,4.0,72,0.00,,BKN060,0.00,188.00,VWS V14.01,2013-01-02 15:40:00,
2013-01-02 10:41:00,76.6,66.5,30.11,South,191,3.0,4.0,71,0.00,,CLR,0.00,188.00,VWS V14.01,2013-01-02 15:41:00,
2013-01-02 10:45:00,76.4,65.9,30.11,SSW,210,4.0,5.0,70,0.00,,BKN060,0.00,206.00,VWS V14.01,2013-01-02 15:45:00,
2013-01-02 10:46:00,76.4,65.9,30.11,SSE,162,2.0,5.0,70,0.00,,CLR,0.00,294.00,VWS V14.01,2013-01-02 15:46:00,
2013-01-02 10:50:00,76.5,65.6,30.11,South,183,0.0,4.0,69,0.00,,BKN060,0.00,367.00,VWS V14.01,2013-01-02 15:50:00,
2013-01-02 10:51:00,76.6,65.7,30.10,South,188,3.0,4.0,69,0.00,,CLR,0.00,315.00,VWS V14.01,2013-01-02 15:51:00,
2013-01-02 10:55:00,76.9,66.0,30.10,South,180,3.0,4.0,69,0.00,,BKN060,0.00,262.00,VWS V14.01,2013-01-02 15:55:00,
2013-01-02 10:56:00,77.0,66.1,30.11,SSW,196,4.0,5.0,69,0.00,,CLR,0.00,255.00,VWS V14.01,2013-01-02 15:56:00,
2013-01-02 11:00:00,77.1,66.6,30.10,SSE,151,4.0,5.0,70,0.00,,BKN060,0.00,234.00,VWS V14.01,2013-01-02 16:00:00,
2013-01-02 11:01:00,77.1,66.2,30.10,SE,134,2.0,6.0,69,0.00,,CLR,0.00,230.00,VWS V14.01,2013-01-02 16:01:00,
2013-01-02 11:05:00,77.0,66.5,30.10,South,188,3.0,4.0,70,0.00,,BKN060,0.00,292.00,VWS V14.01,2013-01-02 16:05:00,
2013-01-02 11:06:00,77.3,67.2,30.10,SSW,204,4.0,6.0,71,0.00,,CLR,0.00,740.00,VWS V14.01,2013-01-02 16:06:00,
2013-01-02 11:10:00,78.3,67.3,30.10,South,171,2.0,5.0,69,0.00,,BKN060,0.00,680.00,VWS V14.01,2013-01-02 16:10:00,
2013-01-02 11:11:00,78.6,67.6,30.10,SSW,198,7.0,7.0,69,0.00,,CLR,0.00,666.00,VWS V14.01,2013-01-02 16:11:00,
2013-01-02 11:15:00,79.1,66.8,30.10,SW,232,3.0,5.0,66,0.00,,BKN060,0.00,666.00,VWS V14.01,2013-01-02 16:15:00,
2013-01-02 11:16:00,79.4,67.5,30.10,SW,219,1.0,6.0,67,0.00,,CLR,0.00,684.00,VWS V14.01,2013-01-02 16:16:00,
2013-01-02 11:20:00,79.8,67.0,30.09,SW,236,3.0,6.0,65,0.00,,BKN060,0.00,729.00,VWS V14.01,2013-01-02 16:20:00,
2013-01-02 11:21:00,79.9,66.7,30.09,SW,225,5.0,5.0,64,0.00,,CLR,0.00,712.00,VWS V14.01,2013-01-02 16:21:00,
2013-01-02 11:25:00,80.0,66.7,30.09,SW,229,2.0,5.0,64,0.00,,BKN060,0.00,719.00,VWS V14.01,2013-01-02 16:25:00,
2013-01-02 11:26:00,80.1,67.3,30.09,SW,227,2.0,3.0,65,0.00,,CLR,0.00,719.00,VWS V14.01,2013-01-02 16:26:00,
2013-01-02 11:30:00,79.6,65.9,30.09,South,183,1.0,5.0,63,0.00,,BKN060,0.00,253.00,VWS V14.01,2013-01-02 16:30:00,
2013-01-02 11:31:00,79.3,66.5,30.09,South,183,1.0,3.0,65,0.00,,CLR,0.00,255.00,VWS V14.01,2013-01-02 16:31:00,
2013-01-02 11:35:00,78.7,66.0,30.09,SSE,153,3.0,4.0,65,0.00,,BKN060,0.00,357.00,VWS V14.01,2013-01-02 16:35:00,
2013-01-02 11:36:00,78.7,66.4,30.09,SE,145,6.0,8.0,66,0.00,,OVC049,0.00,357.00,VWS V14.01,2013-01-02 16:36:00,
2013-01-02 11:40:00,79.3,67.0,30.08,SSE,148,5.0,7.0,66,0.00,,BKN060,0.00,814.00,VWS V14.01,2013-01-02 16:40:00,
2013-01-02 11:41:00,79.5,66.3,30.08,South,177,6.0,8.0,64,0.00,,OVC049,0.00,791.00,VWS V14.01,2013-01-02 16:41:00,
2013-01-02 11:45:00,80.2,66.9,30.08,South,191,5.0,5.0,64,0.00,,BKN060,0.00,779.00,VWS V14.01,2013-01-02 16:45:00,
2013-01-02 11:46:00,80.3,67.0,30.08,SE,133,4.0,5.0,64,0.00,,OVC049,0.00,766.00,VWS V14.01,2013-01-02 16:46:00,
2013-01-02 11:50:00,80.2,66.5,30.08,SSE,167,6.0,8.0,63,0.00,,BKN060,0.00,784.00,VWS V14.01,2013-01-02 16:50:00,
2013-01-02 11:51:00,80.1,66.4,30.08,SSW,196,7.0,8.0,63,0.00,,OVC049,0.00,780.00,VWS V14.01,2013-01-02 16:51:00,
2013-01-02 11:55:00,80.1,66.4,30.08,South,175,4.0,7.0,63,0.00,,BKN060,0.00,796.00,VWS V14.01,2013-01-02 16:55:00,
2013-01-02 11:56:00,80.3,66.6,30.08,SSW,201,2.0,6.0,63,0.00,,OVC049,0.00,816.00,VWS V14.01,2013-01-02 16:56:00,
2013-01-02 12:00:00,81.1,66.9,30.07,South,184,5.0,8.0,62,0.00,,BKN060,0.00,835.00,VWS V14.01,2013-01-02 17:00:00,
2013-01-02 12:01:00,81.3,66.1,30.07,WSW,238,3.0,8.0,60,0.00,,OVC049,0.00,830.00,VWS V14.01,2013-01-02 17:01:00,
2013-01-02 12:05:00,81.6,66.4,30.07,SSE,154,1.0,6.0,60,0.00,,BKN060,0.00,847.00,VWS V14.01,2013-01-02 17:05:00,
2013-01-02 12:06:00,81.8,67.1,30.07,SSW,199,6.0,9.0,61,0.00,,OVC049,0.00,851.00,VWS V14.01,2013-01-02 17:06:00,
2013-01-02 12:10:00,81.3,66.6,30.07,SSW,208,1.0,5.0,61,0.00,,BKN060,0.00,338.00,VWS V14.01,2013-01-02 17:10:00,
2013-01-02 12:11:00,81.1,66.9,30.06,SW,221,1.0,3.0,62,0.00,,OVC049,0.00,338.00,VWS V14.01,2013-01-02 17:11:00,
2013-01-02 12:15:00,80.4,66.2,30.06,SSE,165,4.0,4.0,62,0.00,,BKN060,0.00,225.00,VWS V14.01,2013-01-02 17:15:00,
2013-01-02 12:16:00,80.1,66.4,30.06,South,178,4.0,4.0,63,0.00,,OVC049,0.00,213.00,VWS V14.01,2013-01-02 17:16:00,
2013-01-02 12:20:00,79.4,66.2,30.06,South,190,2.0,5.0,64,0.00,,BKN060,0.00,218.00,VWS V14.01,2013-01-02 17:20:00,
2013-01-02 12:21:00,79.2,66.0,30.06,SSE,168,4.0,4.0,64,0.00,,OVC049,0.00,262.00,VWS V14.01,2013-01-02 17:21:00,
2013-01-02 12:25:00,78.9,66.2,30.06,SW,225,1.0,5.0,65,0.00,,BKN060,0.00,301.00,VWS V14.01,2013-01-02 17:25:00,
2013-01-02 12:26:00,79.3,66.1,30.06,SW,225,5.0,6.0,64,0.00,,OVC049,0.00,872.00,VWS V14.01,2013-01-02 17:26:00,
2013-01-02 12:30:00,80.7,66.5,30.06,South,182,6.0,6.0,62,0.00,,BKN060,0.00,877.00,VWS V14.01,2013-01-02 17:30:00,
2013-01-02 12:31:00,81.0,65.8,30.06,SW,234,4.0,7.0,60,0.00,,OVC049,0.00,874.00,VWS V14.01,2013-01-02 17:31:00,
2013-01-02 12:35:00,81.7,67.4,30.06,West,279,2.0,4.0,62,0.00,,BKN060,0.00,889.00,VWS V14.01,2013-01-02 17:35:00,
2013-01-02 12:36:00,82.0,65.8,30.05,West,279,1.0,3.0,58,0.00,,OVC049,0.00,889.00,VWS V14.01,2013-01-02 17:36:00,
2013-01-02 12:40:00,81.7,66.5,30.05,SSW,194,1.0,4.0,60,0.00,,BKN060,0.00,800.00,VWS V14.01,2013-01-02 17:40:00,
2013-01-02 12:41:00,81.8,66.1,30.05,SSW,204,5.0,6.0,59,0.00,,OVC049,0.00,861.00,VWS V14.01,2013-01-02 17:41:00,
2013-01-02 12:45:00,82.0,64.8,30.05,WSW,237,3.0,6.0,56,0.00,,BKN060,0.00,292.00,VWS V14.01,2013-01-02 17:45:00,
2013-01-02 12:46:00,81.8,64.1,30.05,WSW,253,3.0,6.0,55,0.00,,OVC043,0.00,292.00,VWS V14.01,2013-01-02 17:46:00,
2013-01-02 12:50:00,81.4,65.2,30.05,WSW,242,2.0,3.0,58,0.00,,BKN060,0.00,633.00,VWS V14.01,2013-01-02 17:50:00,
2013-01-02 12:51:00,81.4,64.7,30.05,SW,225,2.0,4.0,57,0.00,,OVC043,0.00,633.00,VWS V14.01,2013-01-02 17:51:00,
2013-01-02 12:55:00,81.1,64.4,30.05,WSW,253,3.0,7.0,57,0.00,,BKN060,0.00,251.00,VWS V14.01,2013-01-02 17:55:00,
2013-01-02 12:56:00,81.1,64.4,30.05,WSW,244,6.0,6.0,57,0.00,,OVC043,0.00,264.00,VWS V14.01,2013-01-02 17:56:00,
2013-01-02 13:00:00,80.9,64.8,30.04,WSW,255,2.0,4.0,58,0.00,,BKN060,0.00,288.00,VWS V14.01,2013-01-02 18:00:00,
2013-01-02 13:01:00,80.9,64.8,30.05,WSW,256,4.0,4.0,58,0.00,,OVC043,0.00,262.00,VWS V14.01,2013-01-02 18:01:00,
2013-01-02 13:05:00,80.8,64.2,30.04,SW,222,6.0,6.0,57,0.00,,BKN060,0.00,230.00,VWS V14.01,2013-01-02 18:05:00,
2013-01-02 13:06:00,80.7,64.6,30.04,WNW,293,3.0,7.0,58,0.00,,OVC043,0.00,209.00,VWS V14.01,2013-01-02 18:06:00,
2013-01-02 13:10:00,80.4,63.8,30.04,WSW,253,2.0,4.0,57,0.00,,BKN060,0.00,204.00,VWS V14.01,2013-01-02 18:10:00,
2013-01-02 13:11:00,80.3,63.7,30.04,WSW,251,4.0,4.0,57,0.00,,OVC043,0.00,211.00,VWS V14.01,2013-01-02 18:11:00,
2013-01-02 13:15:00,80.4,65.3,30.04,West,280,5.0,8.0,60,0.00,,BKN060,0.00,262.00,VWS V14.01,2013-01-02 18:15:00,
2013-01-02 13:16:00,80.5,64.4,30.04,WSW,250,5.0,8.0,58,0.00,,OVC043,0.00,262.00,VWS V14.01,2013-01-02 18:16:00,
2013-01-02 13:20:00,80.7,64.1,30.03,WSW,246,0.0,2.0,57,0.00,,BKN060,0.00,842.00,VWS V14.01,2013-01-02 18:20:00,
2013-01-02 13:21:00,80.8,64.7,30.03,NE,42,3.0,3.0,58,0.00,,OVC043,0.00,842.00,VWS V14.01,2013-01-02 18:21:00,
2013-01-02 13:25:00,81.2,65.0,30.03,NW,307,2.0,3.0,58,0.00,,BKN060,0.00,754.00,VWS V14.01,2013-01-02 18:25:00,
2013-01-02 13:26:00,81.5,65.3,30.03,SW,229,1.0,4.0,58,0.00,,OVC043,0.00,756.00,VWS V14.01,2013-01-02 18:26:00,
2013-01-02 13:30:00,82.0,65.8,30.03,SSW,209,3.0,6.0,58,0.00,,BKN060,0.00,441.00,VWS V14.01,2013-01-02 18:30:00,
2013-01-02 13:31:00,82.4,65.7,30.03,WSW,254,4.0,6.0,57,0.00,,OVC043,0.00,441.00,VWS V14.01,2013-01-02 18:31:00,
2013-01-02 13:35:00,82.5,65.2,30.03,SW,214,2.0,5.0,56,0.00,,BKN060,0.00,195.00,VWS V14.01,2013-01-02 18:35:00,
2013-01-02 13:36:00,82.2,64.4,30.03,SW,214,2.0,3.0,55,0.00,,OVC043,0.00,174.00,VWS V14.01,2013-01-02 18:36:00,
2013-01-02 13:40:00,81.4,65.7,30.02,WNW,292,4.0,4.0,59,0.00,,BKN060,0.00,171.00,VWS V14.01,2013-01-02 18:40:00,
2013-01-02 13:41:00,81.2,65.5,30.02,NW,313,2.0,4.0,59,0.00,,OVC043,0.00,158.00,VWS V14.01,2013-01-02 18:41:00,
2013-01-02 13:45:00,80.7,66.0,30.02,NNW,332,4.0,4.0,61,0.00,,BKN060,0.00,148.00,VWS V14.01,2013-01-02 18:45:00,
2013-01-02 13:46:00,80.7,65.5,30.02,WNW,300,3.0,4.0,60,0.00,,OVC043,0.00,142.00,VWS V14.01,2013-01-02 18:46:00,
2013-01-02 13:50:00,80.4,64.8,30.02,West,271,1.0,4.0,59,0.00,,BKN060,0.00,174.00,VWS V14.01,2013-01-02 18:50:00,
2013-01-02 13:51:00,80.3,64.2,30.02,WSW,250,3.0,5.0,58,0.00,,OVC043,0.00,172.00,VWS V14.01,2013-01-02 18:51:00,
2013-01-02 13:55:00,80.0,63.9,30.02,WSW,251,1.0,2.0,58,0.00,,BKN060,0.00,193.00,VWS V14.01,2013-01-02 18:55:00,
2013-01-02 13:56:00,79.9,63.8,30.02,WSW,251,1.0,2.0,58,0.00,,OVC050,0.00,197.00,VWS V14.01,2013-01-02 18:56:00,
2013-01-02 14:00:00,80.0,64.9,30.02,WSW,254,0.0,2.0,60,0.00,,BKN060,0.00,221.00,VWS V14.01,2013-01-02 19:00:00,
2013-01-02 14:01:00,80.1,64.5,30.02,West,267,2.0,3.0,59,0.00,,OVC050,0.00,251.00,VWS V14.01,2013-01-02 19:01:00,
2013-01-02 14:05:00,80.5,63.4,30.02,SSE,168,2.0,4.0,56,0.00,,BKN060,0.00,297.00,VWS V14.01,2013-01-02 19:05:00,
2013-01-02 14:06:00,80.5,63.9,30.02,SSW,196,3.0,7.0,57,0.00,,OVC050,0.00,297.00,VWS V14.01,2013-01-02 19:06:00,
2013-01-02 14:10:00,80.3,63.2,30.02,SE,131,3.0,4.0,56,0.00,,BKN060,0.00,163.00,VWS V14.01,2013-01-02 19:10:00,
2013-01-02 14:11:00,80.1,63.0,30.02,ENE,59,3.0,7.0,56,0.00,,OVC050,0.00,156.00,VWS V14.01,2013-01-02 19:11:00,
2013-01-02 14:15:00,80.0,63.9,30.02,West,271,2.0,3.0,58,0.00,,BKN060,0.00,174.00,VWS V14.01,2013-01-02 19:15:00,
2013-01-02 14:16:00,80.0,63.9,30.02,West,266,3.0,3.0,58,0.00,,OVC050,0.00,160.00,VWS V14.01,2013-01-02 19:16:00,
2013-01-02 14:20:00,80.1,64.0,30.01,WNW,290,4.0,4.0,58,0.00,,BKN060,0.00,142.00,VWS V14.01,2013-01-02 19:20:00,
2013-01-02 14:21:00,80.1,64.5,30.01,West,265,3.0,8.0,59,0.00,,OVC050,0.00,153.00,VWS V14.01,2013-01-02 19:21:00,
2013-01-02 14:25:00,80.3,64.2,30.01,WNW,298,2.0,6.0,58,0.00,,BKN060,0.00,234.00,VWS V14.01,2013-01-02 19:25:00,
2013-01-02 14:26:00,80.4,64.3,30.01,WNW,286,4.0,6.0,58,0.00,,OVC050,0.00,239.00,VWS V14.01,2013-01-02 19:26:00,
2013-01-02 14:30:00,80.7,64.6,30.01,WNW,288,4.0,6.0,58,0.00,,BKN060,0.00,257.00,VWS V14.01,2013-01-02 19:30:00,
2013-01-02 14:31:00,80.7,64.6,30.01,WNW,289,4.0,6.0,58,0.00,,OVC050,0.00,636.00,VWS V14.01,2013-01-02 19:31:00,
2013-01-02 14:35:00,81.6,64.9,30.01,WSW,243,1.0,5.0,57,0.00,,BKN055,0.00,571.00,VWS V14.01,2013-01-02 19:35:00,
2013-01-02 14:36:00,82.0,64.8,30.01,WNW,293,2.0,4.0,56,0.00,,CLR,0.00,571.00,VWS V14.01,2013-01-02 19:36:00,
2013-01-02 14:40:00,82.7,64.9,30.01,WNW,300,6.0,8.0,55,0.00,,BKN055,0.00,575.00,VWS V14.01,2013-01-02 19:40:00,
2013-01-02 14:41:00,82.7,63.8,30.01,WNW,292,3.0,8.0,53,0.00,,CLR,0.00,575.00,VWS V14.01,2013-01-02 19:41:00,
2013-01-02 14:45:00,83.0,64.7,30.01,West,272,2.0,6.0,54,0.00,,BKN055,0.00,643.00,VWS V14.01,2013-01-02 19:45:00,
2013-01-02 14:47:00,83.2,64.3,30.01,WNW,290,4.0,8.0,53,0.00,,CLR,0.00,232.00,VWS V14.01,2013-01-02 19:47:00,
2013-01-02 14:50:00,83.0,64.1,30.01,SW,232,7.0,7.0,53,0.00,,BKN055,0.00,232.00,VWS V14.01,2013-01-02 19:50:00,
2013-01-02 14:52:00,82.7,63.3,30.01,WSW,244,2.0,6.0,52,0.00,,CLR,0.00,146.00,VWS V14.01,2013-01-02 19:52:00,
2013-01-02 14:55:00,82.1,63.3,30.01,WSW,237,3.0,7.0,53,0.00,,BKN055,0.00,246.00,VWS V14.01,2013-01-02 19:55:00,
2013-01-02 14:57:00,81.7,63.5,30.01,WSW,246,2.0,3.0,54,0.00,,CLR,0.00,251.00,VWS V14.01,2013-01-02 19:57:00,
2013-01-02 15:00:00,81.3,63.1,30.01,WNW,298,3.0,4.0,54,0.00,,BKN055,0.00,128.00,VWS V14.01,2013-01-02 20:00:00,
2013-01-02 15:02:00,81.2,63.5,30.01,WNW,288,3.0,5.0,55,0.00,,CLR,0.00,195.00,VWS V14.01,2013-01-02 20:02:00,
2013-01-02 15:05:00,81.1,63.9,30.01,WSW,254,5.0,5.0,56,0.00,,BKN055,0.00,123.00,VWS V14.01,2013-01-02 20:05:00,
2013-01-02 15:07:00,81.1,63.9,30.01,West,265,4.0,6.0,56,0.00,,CLR,0.00,209.00,VWS V14.01,2013-01-02 20:07:00,
2013-01-02 15:10:00,81.5,64.3,30.01,West,264,3.0,7.0,56,0.00,,BKN055,0.00,141.00,VWS V14.01,2013-01-02 20:10:00,
2013-01-02 15:12:00,81.6,63.9,30.01,West,269,6.0,6.0,55,0.00,,CLR,0.00,163.00,VWS V14.01,2013-01-02 20:12:00,
2013-01-02 15:15:00,81.6,63.4,30.01,WSW,241,5.0,5.0,54,0.00,,BKN055,0.00,114.00,VWS V14.01,2013-01-02 20:15:00,
2013-01-02 15:17:00,81.3,63.1,30.01,WSW,250,4.0,5.0,54,0.00,,CLR,0.00,158.00,VWS V14.01,2013-01-02 20:17:00,
2013-01-02 15:20:00,81.3,63.6,30.01,West,271,4.0,6.0,55,0.00,,BKN055,0.00,455.00,VWS V14.01,2013-01-02 20:20:00,
2013-01-02 15:22:00,81.6,63.4,30.01,West,263,1.0,6.0,54,0.00,,CLR,0.00,450.00,VWS V14.01,2013-01-02 20:22:00,
2013-01-02 15:25:00,82.1,64.9,30.01,WNW,293,6.0,7.0,56,0.00,,BKN055,0.00,445.00,VWS V14.01,2013-01-02 20:25:00,
2013-01-02 15:27:00,82.4,64.1,30.01,WNW,290,1.0,6.0,54,0.00,,CLR,0.00,429.00,VWS V14.01,2013-01-02 20:27:00,
2013-01-02 15:30:00,82.6,64.3,30.01,West,280,2.0,5.0,54,0.00,,BKN055,0.00,434.00,VWS V14.01,2013-01-02 20:30:00,
2013-01-02 15:32:00,82.6,63.8,30.01,SW,235,7.0,7.0,53,0.00,,CLR,0.00,429.00,VWS V14.01,2013-01-02 20:32:00,
2013-01-02 15:35:00,82.7,65.4,30.01,SSW,207,2.0,5.0,56,0.00,,BKN055,0.00,413.00,VWS V14.01,2013-01-02 20:35:00,
2013-01-02 15:37:00,82.3,66.6,30.01,SSW,210,3.0,3.0,59,0.00,,CLR,0.00,406.00,VWS V14.01,2013-01-02 20:37:00,
2013-01-02 15:40:00,81.7,66.5,30.01,SSW,211,2.0,4.0,60,0.00,,BKN055,0.00,396.00,VWS V14.01,2013-01-02 20:40:00,
2013-01-02 15:42:00,81.4,66.7,30.01,SSW,210,1.0,4.0,61,0.00,,CLR,0.00,369.00,VWS V14.01,2013-01-02 20:42:00,
2013-01-02 15:45:00,81.0,66.8,30.01,SSW,210,1.0,1.0,62,0.00,,BKN055,0.00,373.00,VWS V14.01,2013-01-02 20:45:00,
2013-01-02 15:47:00,80.8,66.6,30.01,SSW,199,5.0,6.0,62,0.00,,CLR,0.00,366.00,VWS V14.01,2013-01-02 20:47:00,
2013-01-02 15:50:00,80.4,66.7,30.01,South,177,3.0,4.0,63,0.00,,BKN055,0.00,359.00,VWS V14.01,2013-01-02 20:50:00,
2013-01-02 15:52:00,80.0,66.3,30.01,South,175,1.0,4.0,63,0.00,,SCT055,0.00,120.00,VWS V14.01,2013-01-02 20:52:00,
2013-01-02 15:55:00,79.6,66.8,30.01,SSE,155,1.0,5.0,65,0.00,,BKN055,0.00,134.00,VWS V14.01,2013-01-02 20:55:00,
2013-01-02 15:57:00,79.4,67.1,30.01,SSE,161,3.0,4.0,66,0.00,,SCT055,0.00,125.00,VWS V14.01,2013-01-02 20:57:00,
2013-01-02 16:00:00,79.2,66.9,30.01,SSW,196,4.0,6.0,66,0.00,,BKN055,0.00,114.00,VWS V14.01,2013-01-02 21:00:00,
2013-01-02 16:02:00,79.0,66.7,30.01,SSW,207,5.0,5.0,66,0.00,,SCT055,0.00,118.00,VWS V14.01,2013-01-02 21:02:00,
2013-01-02 16:05:00,78.8,66.9,30.01,SE,132,1.0,6.0,67,0.00,,BKN055,0.00,118.00,VWS V14.01,2013-01-02 21:05:00,
2013-01-02 16:07:00,78.7,66.8,30.01,SSE,165,2.0,5.0,67,0.00,,SCT055,0.00,105.00,VWS V14.01,2013-01-02 21:07:00,
2013-01-02 16:10:00,78.5,66.6,30.01,SSE,161,2.0,5.0,67,0.00,,BKN055,0.00,97.00,VWS V14.01,2013-01-02 21:10:00,
2013-01-02 16:12:00,78.4,67.0,30.01,South,189,4.0,4.0,68,0.00,,SCT055,0.00,97.00,VWS V14.01,2013-01-02 21:12:00,
2013-01-02 16:15:00,78.2,66.8,30.01,South,180,4.0,6.0,68,0.00,,BKN055,0.00,91.00,VWS V14.01,2013-01-02 21:15:00,
2013-01-02 16:17:00,78.1,66.7,30.01,SSE,151,4.0,5.0,68,0.00,,SCT055,0.00,95.00,VWS V14.01,2013-01-02 21:17:00,
2013-01-02 16:20:00,78.0,66.6,30.01,SE,131,3.0,5.0,68,0.00,,BKN055,0.00,88.00,VWS V14.01,2013-01-02 21:20:00,
2013-01-02 16:22:00,77.9,66.9,30.01,South,174,2.0,3.0,69,0.00,,SCT055,0.00,81.00,VWS V14.01,2013-01-02 21:22:00,
2013-01-02 16:25:00,77.9,66.9,30.01,South,177,2.0,3.0,69,0.00,,BKN055,0.00,76.00,VWS V14.01,2013-01-02 21:25:00,
2013-01-02 16:27:00,77.9,66.9,30.01,South,180,2.0,6.0,69,0.00,,SCT055,0.00,84.00,VWS V14.01,2013-01-02 21:27:00,
2013-01-02 16:30:00,77.9,66.9,30.01,SE,146,4.0,7.0,69,0.00,,BKN055,0.00,97.00,VWS V14.01,2013-01-02 21:30:00,
2013-01-02 16:32:00,77.8,67.2,30.01,South,172,3.0,7.0,70,0.00,,SCT055,0.00,77.00,VWS V14.01,2013-01-02 21:32:00,
2013-01-02 16:35:00,77.6,67.1,30.01,East,84,2.0,6.0,70,0.00,,BKN055,0.00,77.00,VWS V14.01,2013-01-02 21:35:00,
2013-01-02 16:37:00,77.5,66.9,30.01,South,171,4.0,7.0,70,0.00,,FEW050,0.00,74.00,VWS V14.01,2013-01-02 21:37:00,
2013-01-02 16:40:00,77.4,66.9,30.01,SE,145,2.0,8.0,70,0.00,,BKN055,0.00,79.00,VWS V14.01,2013-01-02 21:40:00,
2013-01-02 16:42:00,77.3,66.8,30.02,SSE,161,6.0,8.0,70,0.00,,FEW050,0.00,100.00,VWS V14.01,2013-01-02 21:42:00,
2013-01-02 16:45:00,77.3,66.8,30.02,SSE,153,5.0,6.0,70,0.00,,BKN055,0.00,109.00,VWS V14.01,2013-01-02 21:45:00,
2013-01-02 16:47:00,77.3,66.3,30.02,SSE,163,5.0,7.0,69,0.00,,FEW050,0.00,81.00,VWS V14.01,2013-01-02 21:47:00,
2013-01-02 16:50:00,77.3,66.8,30.02,SE,131,4.0,6.0,70,0.00,,BKN055,0.00,67.00,VWS V14.01,2013-01-02 21:50:00,
2013-01-02 16:52:00,77.3,66.8,30.02,South,174,3.0,6.0,70,0.00,,FEW050,0.00,60.00,VWS V14.01,2013-01-02 21:52:00,
2013-01-02 16:55:00,77.3,66.8,30.02,South,179,6.0,9.0,70,0.00,,BKN055,0.00,53.00,VWS V14.01,2013-01-02 21:55:00,
2013-01-02 16:57:00,77.2,66.7,30.02,SSE,162,5.0,6.0,70,0.00,,FEW050,0.00,62.00,VWS V14.01,2013-01-02 21:57:00,
2013-01-02 17:00:00,77.1,66.6,30.02,SSE,157,2.0,6.0,70,0.00,,BKN055,0.00,98.00,VWS V14.01,2013-01-02 22:00:00,
2013-01-02 17:02:00,77.0,66.5,30.02,SSE,167,5.0,8.0,70,0.00,,FEW050,0.00,90.00,VWS V14.01,2013-01-02 22:02:00,
2013-01-02 17:05:00,76.9,66.4,30.02,South,188,6.0,8.0,70,0.00,,BKN055,0.00,62.00,VWS V14.01,2013-01-02 22:05:00,
2013-01-02 17:07:00,76.9,66.4,30.02,South,170,2.0,7.0,70,0.00,,FEW050,0.00,65.00,VWS V14.01,2013-01-02 22:07:00,
2013-01-02 17:10:00,76.8,66.3,30.02,SE,134,6.0,9.0,70,0.00,,BKN055,0.00,49.00,VWS V14.01,2013-01-02 22:10:00,
2013-01-02 17:12:00,76.7,66.2,30.02,South,178,3.0,8.0,70,0.00,,FEW050,0.00,35.00,VWS V14.01,2013-01-02 22:12:00,
2013-01-02 17:15:00,76.6,66.1,30.02,SSE,161,4.0,7.0,70,0.00,,BKN055,0.00,28.00,VWS V14.01,2013-01-02 22:15:00,
2013-01-02 17:17:00,76.5,66.0,30.02,South,184,4.0,7.0,70,0.00,,FEW050,0.00,28.00,VWS V14.01,2013-01-02 22:17:00,
2013-01-02 17:20:00,76.4,66.3,30.02,South,180,6.0,9.0,71,0.00,,BKN055,0.00,25.00,VWS V14.01,2013-01-02 22:20:00,
2013-01-02 17:22:00,76.3,66.2,30.03,South,187,1.0,7.0,71,0.00,,FEW050,0.00,23.00,VWS V14.01,2013-01-02 22:22:00,
2013-01-02 17:25:00,76.1,66.0,30.03,South,171,1.0,6.0,71,0.00,,BKN055,0.00,18.00,VWS V14.01,2013-01-02 22:25:00,
2013-01-02 17:27:00,76.1,66.0,30.03,SSW,196,3.0,6.0,71,0.00,,FEW050,0.00,16.00,VWS V14.01,2013-01-02 22:27:00,
2013-01-02 17:30:00,75.9,65.8,30.03,SSW,195,4.0,5.0,71,0.00,,BKN055,0.00,16.00,VWS V14.01,2013-01-02 22:30:00,
2013-01-02 17:32:00,75.8,65.7,30.03,South,180,2.0,5.0,71,0.00,,FEW050,0.00,12.00,VWS V14.01,2013-01-02 22:32:00,
2013-01-02 17:35:00,75.7,66.0,30.03,South,186,4.0,5.0,72,0.00,,BKN055,0.00,9.00,VWS V14.01,2013-01-02 22:35:00,
2013-01-02 17:37:00,75.7,66.0,30.03,South,178,4.0,7.0,72,0.00,,BKN050,0.00,7.00,VWS V14.01,2013-01-02 22:37:00,
2013-01-02 17:40:00,75.5,66.2,30.03,SSE,160,6.0,7.0,73,0.00,,BKN055,0.00,5.00,VWS V14.01,2013-01-02 22:40:00,
2013-01-02 17:42:00,75.5,66.6,30.03,South,170,2.0,8.0,74,0.00,,BKN050,0.00,0.00,VWS V14.01,2013-01-02 22:42:00,
2013-01-02 17:45:00,75.4,66.5,30.03,South,184,3.0,5.0,74,0.00,,BKN055,0.00,0.00,VWS V14.01,2013-01-02 22:45:00,
2013-01-02 17:47:00,75.3,66.4,30.03,SSW,210,3.0,8.0,74,0.00,,BKN050,0.00,0.00,VWS V14.01,2013-01-02 22:47:00,
2013-01-02 17:50:00,75.2,66.3,30.04,South,182,5.0,8.0,74,0.00,,BKN055,0.00,0.00,VWS V14.01,2013-01-02 22:50:00,
2013-01-02 17:52:00,75.1,66.6,30.04,SSW,204,1.0,7.0,75,0.00,,BKN050,0.00,0.00,VWS V14.01,2013-01-02 22:52:00,
2013-01-02 17:55:00,75.0,66.6,30.04,SSW,207,5.0,6.0,75,0.00,,BKN055,0.00,0.00,VWS V14.01,2013-01-02 22:55:00,
2013-01-02 17:57:00,74.9,66.4,30.04,South,190,6.0,6.0,75,0.00,,BKN050,0.00,0.00,VWS V14.01,2013-01-02 22:57:00,
2013-01-02 18:00:00,74.8,66.7,30.04,SSW,200,3.0,9.0,76,0.00,,BKN055,0.00,0.00,VWS V14.01,2013-01-02 23:00:00,
2013-01-02 18:02:00,74.8,66.7,30.03,SSW,194,6.0,7.0,76,0.00,,BKN050,0.00,0.00,VWS V14.01,2013-01-02 23:02:00,
2013-01-02 18:05:00,74.7,66.6,30.04,SSE,167,2.0,5.0,76,0.00,,BKN055,0.00,0.00,VWS V14.01,2013-01-02 23:05:00,
2013-01-02 18:07:00,74.7,67.0,30.04,SSW,204,2.0,7.0,77,0.00,,BKN050,0.00,0.00,VWS V14.01,2013-01-02 23:07:00,
2013-01-02 18:10:00,74.7,67.0,30.04,South,191,6.0,7.0,77,0.00,,BKN055,0.00,0.00,VWS V14.01,2013-01-02 23:10:00,
2013-01-02 18:12:00,74.6,66.9,30.04,SSW,198,1.0,5.0,77,0.00,,BKN050,0.00,0.00,VWS V14.01,2013-01-02 23:12:00,
2013-01-02 18:15:00,74.5,67.2,30.04,SSW,199,3.0,5.0,78,0.00,,BKN055,0.00,0.00,VWS V14.01,2013-01-02 23:15:00,
2013-01-02 18:17:00,74.5,67.2,30.03,SSW,206,5.0,7.0,78,0.00,,BKN050,0.00,0.00,VWS V14.01,2013-01-02 23:17:00,
2013-01-02 18:20:00,74.4,67.5,30.03,South,185,2.0,7.0,79,0.00,,BKN055,0.00,0.00,VWS V14.01,2013-01-02 23:20:00,
2013-01-02 18:22:00,74.4,67.5,30.03,SSW,201,5.0,7.0,79,0.00,,BKN050,0.00,0.00,VWS V14.01,2013-01-02 23:22:00,
2013-01-02 18:25:00,74.3,67.4,30.04,SSW,211,7.0,8.0,79,0.00,,BKN055,0.00,0.00,VWS V14.01,2013-01-02 23:25:00,
2013-01-02 18:27:00,74.2,67.6,30.03,SSW,211,6.0,8.0,80,0.00,,BKN050,0.00,0.00,VWS V14.01,2013-01-02 23:27:00,
2013-01-02 18:30:00,74.2,67.6,30.04,SSW,194,3.0,7.0,80,0.00,,BKN055,0.00,0.00,VWS V14.01,2013-01-02 23:30:00,
2013-01-02 18:32:00,74.1,67.5,30.04,South,190,5.0,6.0,80,0.00,,BKN050,0.00,0.00,VWS V14.01,2013-01-02 23:32:00,
2013-01-02 18:35:00,74.0,67.8,30.04,South,177,1.0,4.0,81,0.00,,BKN055,0.00,0.00,VWS V14.01,2013-01-02 23:35:00,
2013-01-02 18:37:00,74.0,67.8,30.04,South,183,4.0,6.0,81,0.00,,CLR,0.00,0.00,VWS V14.01,2013-01-02 23:37:00,
2013-01-02 18:40:00,73.9,67.7,30.04,SSW,209,4.0,7.0,81,0.00,,BKN055,0.00,0.00,VWS V14.01,2013-01-02 23:40:00,
2013-01-02 18:42:00,73.8,67.6,30.04,South,169,1.0,5.0,81,0.00,,CLR,0.00,0.00,VWS V14.01,2013-01-02 23:42:00,
2013-01-02 18:45:00,73.8,68.0,30.04,South,189,5.0,6.0,82,0.00,,BKN055,0.00,0.00,VWS V14.01,2013-01-02 23:45:00,
2013-01-02 18:47:00,73.7,67.9,30.04,SSW,197,4.0,5.0,82,0.00,,CLR,0.00,0.00,VWS V14.01,2013-01-02 23:47:00,
2013-01-02 18:50:00,73.7,67.9,30.04,SSE,152,2.0,5.0,82,0.00,,BKN055,0.00,0.00,VWS V14.01,2013-01-02 23:50:00,
2013-01-02 18:52:00,73.7,67.9,30.04,South,180,4.0,4.0,82,0.00,,CLR,0.00,0.00,VWS V14.01,2013-01-02 23:52:00,
2013-01-02 18:55:00,73.7,67.9,30.04,South,174,3.0,4.0,82,0.00,,BKN055,0.00,0.00,VWS V14.01,2013-01-02 23:55:00,
2013-01-02 18:57:00,73.6,67.8,30.04,SSW,196,1.0,4.0,82,0.00,,CLR,0.00,0.00,VWS V14.01,2013-01-02 23:57:00,
2013-01-02 19:00:00,73.5,67.7,30.04,South,184,1.0,4.0,82,0.00,,BKN055,0.00,0.00,VWS V14.01,2013-01-03 00:00:00,
2013-01-02 19:02:00,73.5,67.7,30.04,South,180,1.0,3.0,82,0.00,,CLR,0.00,0.00,VWS V14.01,2013-01-03 00:02:00,
2013-01-02 19:05:00,73.4,67.9,30.05,South,180,2.0,3.0,83,0.00,,BKN055,0.00,0.00,VWS V14.01,2013-01-03 00:05:00,
2013-01-02 19:07:00,73.3,67.8,30.05,SSE,153,1.0,3.0,83,0.00,,BKN055,0.00,0.00,VWS V14.01,2013-01-03 00:07:00,
2013-01-02 19:10:00,73.2,67.7,30.05,South,172,2.0,4.0,83,0.00,,BKN055,0.00,0.00,VWS V14.01,2013-01-03 00:10:00,
2013-01-02 19:12:00,73.1,67.6,30.05,South,172,1.0,2.0,83,0.00,,BKN055,0.00,0.00,VWS V14.01,2013-01-03 00:12:00,
2013-01-02 19:15:00,73.1,68.0,30.05,SSW,199,2.0,5.0,84,0.00,,BKN055,0.00,0.00,VWS V14.01,2013-01-03 00:15:00,
2013-01-02 19:17:00,73.0,67.9,30.05,South,187,2.0,4.0,84,0.00,,BKN055,0.00,0.00,VWS V14.01,2013-01-03 00:17:00,
2013-01-02 19:20:00,72.9,67.8,30.05,South,169,1.0,3.0,84,0.00,,BKN055,0.00,0.00,VWS V14.01,2013-01-03 00:20:00,
2013-01-02 19:22:00,72.9,67.8,30.06,South,169,0.0,2.0,84,0.00,,BKN055,0.00,0.00,VWS V14.01,2013-01-03 00:22:00,
2013-01-02 19:25:00,72.8,67.7,30.06,South,184,1.0,2.0,84,0.00,,BKN055,0.00,0.00,VWS V14.01,2013-01-03 00:25:00,
2013-01-02 19:27:00,72.8,67.7,30.06,South,184,0.0,2.0,84,0.00,,BKN055,0.00,0.00,VWS V14.01,2013-01-03 00:27:00,
2013-01-02 19:30:00,72.8,68.0,30.06,South,183,0.0,3.0,85,0.00,,BKN055,0.00,0.00,VWS V14.01,2013-01-03 00:30:00,
2013-01-02 19:32:00,72.8,68.0,30.06,South,183,1.0,2.0,85,0.00,,BKN055,0.00,0.00,VWS V14.01,2013-01-03 00:32:00,
2013-01-02 19:35:00,72.8,68.0,30.06,South,188,2.0,3.0,85,0.00,,BKN055,0.00,0.00,VWS V14.01,2013-01-03 00:35:00,
2013-01-02 19:37:00,72.9,68.1,30.06,SSW,200,1.0,3.0,85,0.00,,BKN055,0.00,0.00,VWS V14.01,2013-01-03 00:37:00,
2013-01-02 19:40:00,72.9,68.1,30.06,South,187,1.0,3.0,85,0.00,,BKN055,0.00,0.00,VWS V14.01,2013-01-03 00:40:00,
2013-01-02 19:42:00,73.0,67.9,30.06,SSW,195,2.0,5.0,84,0.00,,BKN055,0.00,0.00,VWS V14.01,2013-01-03 00:42:00,
2013-01-02 19:45:00,73.0,68.2,30.06,SSW,195,2.0,3.0,85,0.00,,BKN055,0.00,0.00,VWS V14.01,2013-01-03 00:45:00,
2013-01-02 19:47:00,73.1,68.0,30.06,SSW,194,0.0,3.0,84,0.00,,BKN055,0.00,0.00,VWS V14.01,2013-01-03 00:47:00,
2013-01-02 19:50:00,73.2,68.1,30.06,South,186,1.0,4.0,84,0.00,,BKN055,0.00,0.00,VWS V14.01,2013-01-03 00:50:00,
2013-01-02 19:52:00,73.2,68.1,30.06,South,188,3.0,3.0,84,0.00,,BKN055,0.00,0.00,VWS V14.01,2013-01-03 00:52:00,
2013-01-02 19:55:00,73.3,68.2,30.06,South,173,3.0,3.0,84,0.00,,BKN055,0.00,0.00,VWS V14.01,2013-01-03 00:55:00,
2013-01-02 19:57:00,73.3,68.2,30.06,South,169,1.0,4.0,84,0.00,,BKN055,0.00,0.00,VWS V14.01,2013-01-03 00:57:00,
2013-01-02 20:00:00,73.3,68.2,30.06,South,169,1.0,2.0,84,0.00,,BKN055,0.00,0.00,VWS V14.01,2013-01-03 01:00:00,
2013-01-02 20:02:00,73.3,68.2,30.06,SSE,150,1.0,4.0,84,0.00,,BKN055,0.00,0.00,VWS V14.01,2013-01-03 01:02:00,
2013-01-02 20:05:00,73.3,68.2,30.06,SE,133,2.0,4.0,84,0.00,,BKN055,0.00,0.00,VWS V14.01,2013-01-03 01:05:00,
2013-01-02 20:07:00,73.2,68.1,30.06,SSE,148,1.0,2.0,84,0.00,,BKN055,0.00,0.00,VWS V14.01,2013-01-03 01:07:00,
2013-01-02 20:10:00,73.2,68.1,30.06,SSE,165,2.0,3.0,84,0.00,,BKN055,0.00,0.00,VWS V14.01,2013-01-03 01:10:00,
2013-01-02 20:12:00,73.2,68.1,30.06,South,180,2.0,3.0,84,0.00,,BKN055,0.00,0.00,VWS V14.01,2013-01-03 01:12:00,
2013-01-02 20:15:00,73.1,68.0,30.07,SSW,202,3.0,5.0,84,0.00,,BKN055,0.00,0.00,VWS V14.01,2013-01-03 01:15:00,
2013-01-02 20:17:00,73.1,68.0,30.06,SSW,202,3.0,3.0,84,0.00,,BKN055,0.00,0.00,VWS V14.01,2013-01-03 01:17:00,
2013-01-02 20:20:00,73.0,67.9,30.07,South,185,0.0,4.0,84,0.00,,BKN055,0.00,0.00,VWS V14.01,2013-01-03 01:20:00,
2013-01-02 20:22:00,73.0,67.9,30.06,South,185,2.0,3.0,84,0.00,,BKN055,0.00,0.00,VWS V14.01,2013-01-03 01:22:00,
2013-01-02 20:25:00,73.0,67.9,30.07,South,185,1.0,2.0,84,0.00,,BKN055,0.00,0.00,VWS V14.01,2013-01-03 01:25:00,
2013-01-02 20:27:00,72.9,67.8,30.07,South,182,2.0,4.0,84,0.00,,BKN055,0.00,0.00,VWS V14.01,2013-01-03 01:27:00,
2013-01-02 20:30:00,72.9,67.8,30.07,South,186,2.0,3.0,84,0.00,,BKN055,0.00,0.00,VWS V14.01,2013-01-03 01:30:00,
2013-01-02 20:32:00,72.9,67.8,30.07,South,187,3.0,3.0,84,0.00,,BKN055,0.00,0.00,VWS V14.01,2013-01-03 01:32:00,
2013-01-02 20:35:00,72.9,68.1,30.07,SSW,192,2.0,4.0,85,0.00,,BKN055,0.00,0.00,VWS V14.01,2013-01-03 01:35:00,
2013-01-02 20:37:00,72.9,68.1,30.07,SSW,192,2.0,3.0,85,0.00,,BKN055,0.00,0.00,VWS V14.01,2013-01-03 01:37:00,
2013-01-02 20:40:00,72.9,68.1,30.07,SSW,192,2.0,3.0,85,0.00,,BKN055,0.00,0.00,VWS V14.01,2013-01-03 01:40:00,
2013-01-02 20:42:00,72.9,67.8,30.07,SSW,192,1.0,3.0,84,0.00,,BKN055,0.00,0.00,VWS V14.01,2013-01-03 01:42:00,
2013-01-02 20:45:00,72.9,68.1,30.07,SSW,197,2.0,4.0,85,0.00,,BKN055,0.00,0.00,VWS V14.01,2013-01-03 01:45:00,
2013-01-02 20:47:00,72.9,68.1,30.07,South,185,2.0,3.0,85,0.00,,BKN055,0.00,0.00,VWS V14.01,2013-01-03 01:47:00,
2013-01-02 20:50:00,72.9,68.1,30.07,South,188,3.0,3.0,85,0.00,,BKN055,0.00,0.00,VWS V14.01,2013-01-03 01:50:00,
2013-01-02 20:52:00,72.9,68.1,30.07,SSW,196,3.0,4.0,85,0.00,,BKN055,0.00,0.00,VWS V14.01,2013-01-03 01:52:00,
2013-01-02 20:55:00,72.9,68.1,30.07,South,183,3.0,4.0,85,0.00,,BKN055,0.00,0.00,VWS V14.01,2013-01-03 01:55:00,
2013-01-02 20:57:00,72.9,68.1,30.07,South,184,1.0,3.0,85,0.00,,BKN055,0.00,0.00,VWS V14.01,2013-01-03 01:57:00,
2013-01-02 21:00:00,73.0,68.2,30.07,South,186,2.0,3.0,85,0.00,,BKN055,0.00,0.00,VWS V14.01,2013-01-03 02:00:00,
2013-01-02 21:02:00,73.0,68.2,30.07,SSW,196,3.0,3.0,85,0.00,,BKN055,0.00,0.00,VWS V14.01,2013-01-03 02:02:00,
2013-01-02 21:05:00,73.0,68.2,30.07,SSW,196,1.0,3.0,85,0.00,,BKN055,0.00,0.00,VWS V14.01,2013-01-03 02:05:00,
2013-01-02 21:07:00,73.0,68.2,30.07,SSW,196,3.0,3.0,85,0.00,,BKN055,0.00,0.00,VWS V14.01,2013-01-03 02:07:00,
2013-01-02 21:10:00,73.0,68.2,30.07,SSW,196,2.0,2.0,85,0.00,,BKN055,0.00,0.00,VWS V14.01,2013-01-03 02:10:00,
2013-01-02 21:12:00,73.0,68.2,30.07,SSW,196,1.0,2.0,85,0.00,,BKN055,0.00,0.00,VWS V14.01,2013-01-03 02:12:00,
2013-01-02 21:15:00,73.0,68.2,30.08,SSW,196,1.0,2.0,85,0.00,,BKN055,0.00,0.00,VWS V14.01,2013-01-03 02:15:00,
2013-01-02 21:17:00,72.9,68.1,30.08,SSW,196,2.0,2.0,85,0.00,,BKN055,0.00,0.00,VWS V14.01,2013-01-03 02:17:00,
2013-01-02 21:20:00,72.9,68.1,30.08,SSW,196,0.0,1.0,85,0.00,,BKN055,0.00,0.00,VWS V14.01,2013-01-03 02:20:00,
2013-01-02 21:22:00,72.8,68.0,30.08,SSW,196,1.0,2.0,85,0.00,,BKN055,0.00,0.00,VWS V14.01,2013-01-03 02:22:00,
2013-01-02 21:25:00,72.8,68.0,30.08,SSW,196,0.0,1.0,85,0.00,,BKN055,0.00,0.00,VWS V14.01,2013-01-03 02:25:00,
2013-01-02 21:27:00,72.7,67.9,30.08,SSW,196,1.0,2.0,85,0.00,,BKN055,0.00,0.00,VWS V14.01,2013-01-03 02:27:00,
2013-01-02 21:30:00,72.7,67.9,30.07,SSW,196,1.0,3.0,85,0.00,,BKN055,0.00,0.00,VWS V14.01,2013-01-03 02:30:00,
2013-01-02 21:35:00,71.6,67.9,30.07,SSW,196,1.0,1.0,88,0.00,,CLR,0.00,0.00,VWS V14.01,2013-01-03 02:35:00,
2013-01-02 21:38:00,72.6,68.2,30.08,SSW,196,1.0,1.0,86,0.00,,BKN055,0.00,0.00,VWS V14.01,2013-01-03 02:38:00,
2013-01-02 21:40:00,72.6,68.2,30.08,SSW,196,0.0,1.0,86,0.00,,OVC050,0.00,0.00,VWS V14.01,2013-01-03 02:40:00,
2013-01-02 21:43:00,72.6,68.2,30.08,SSW,196,2.0,2.0,86,0.00,,BKN060,0.00,0.00,VWS V14.01,2013-01-03 02:43:00,
2013-01-02 21:45:00,72.6,68.2,30.08,SSW,196,0.0,2.0,86,0.00,,OVC050,0.00,0.00,VWS V14.01,2013-01-03 02:45:00,
2013-01-02 21:48:00,72.5,68.1,30.08,SSW,196,2.0,2.0,86,0.00,,BKN060,0.00,0.00,VWS V14.01,2013-01-03 02:48:00,
2013-01-02 21:50:00,72.5,68.1,30.08,SSW,196,1.0,2.0,86,0.00,,OVC050,0.00,0.00,VWS V14.01,2013-01-03 02:50:00,
2013-01-02 21:53:00,72.4,68.0,30.08,SSW,196,1.0,2.0,86,0.00,,BKN060,0.00,0.00,VWS V14.01,2013-01-03 02:53:00,
2013-01-02 21:55:00,72.4,68.0,30.08,SSW,196,1.0,2.0,86,0.00,,OVC050,0.00,0.00,VWS V14.01,2013-01-03 02:55:00,
2013-01-02 21:58:00,72.4,68.0,30.08,SSW,196,0.0,0.0,86,0.00,,BKN060,0.00,0.00,VWS V14.01,2013-01-03 02:58:00,
2013-01-02 22:00:00,72.3,68.2,30.08,SSW,196,0.0,0.0,87,0.00,,OVC050,0.00,0.00,VWS V14.01,2013-01-03 03:00:00,
2013-01-02 22:03:00,72.3,67.9,30.08,SSW,196,1.0,1.0,86,0.00,,BKN060,0.00,0.00,VWS V14.01,2013-01-03 03:03:00,
2013-01-02 22:05:00,72.3,67.9,30.08,SSW,196,0.0,1.0,86,0.00,,OVC050,0.00,0.00,VWS V14.01,2013-01-03 03:05:00,
2013-01-02 22:08:00,72.2,68.1,30.07,SSW,196,1.0,2.0,87,0.00,,BKN060,0.00,0.00,VWS V14.01,2013-01-03 03:08:00,
2013-01-02 22:10:00,72.2,68.1,30.08,SSW,196,1.0,2.0,87,0.00,,OVC050,0.00,0.00,VWS V14.01,2013-01-03 03:10:00,
2013-01-02 22:13:00,72.2,68.1,30.07,SSW,196,0.0,1.0,87,0.00,,BKN060,0.00,0.00,VWS V14.01,2013-01-03 03:13:00,
2013-01-02 22:15:00,72.2,68.1,30.07,SSW,196,0.0,1.0,87,0.00,,OVC050,0.00,0.00,VWS V14.01,2013-01-03 03:15:00,
2013-01-02 22:18:00,72.2,68.1,30.07,SSW,196,0.0,1.0,87,0.00,,BKN060,0.00,0.00,VWS V14.01,2013-01-03 03:18:00,
2013-01-02 22:20:00,72.1,68.0,30.07,SSW,196,0.0,1.0,87,0.00,,BKN060,0.00,0.00,VWS V14.01,2013-01-03 03:20:00,
2013-01-02 22:23:00,72.0,67.9,30.07,SSW,196,0.0,0.0,87,0.00,,BKN060,0.00,0.00,VWS V14.01,2013-01-03 03:23:00,
2013-01-02 22:25:00,72.0,67.9,30.07,SSW,196,0.0,0.0,87,0.00,,BKN060,0.00,0.00,VWS V14.01,2013-01-03 03:25:00,
2013-01-02 22:28:00,71.8,67.7,30.07,SSW,196,0.0,0.0,87,0.00,,BKN060,0.00,0.00,VWS V14.01,2013-01-03 03:28:00,
2013-01-02 22:30:00,71.8,67.7,30.07,SSW,196,0.0,0.0,87,0.00,,BKN060,0.00,0.00,VWS V14.01,2013-01-03 03:30:00,
2013-01-02 22:33:00,71.6,67.9,30.07,SSW,196,0.0,0.0,88,0.00,,BKN060,0.00,0.00,VWS V14.01,2013-01-03 03:33:00,
2013-01-02 22:35:00,71.6,67.9,30.07,SSW,196,1.0,1.0,88,0.00,,BKN060,0.00,0.00,VWS V14.01,2013-01-03 03:35:00,
2013-01-02 22:38:00,71.6,67.9,30.07,SSW,196,0.0,0.0,88,0.00,,BKN060,0.00,0.00,VWS V14.01,2013-01-03 03:38:00,
2013-01-02 22:40:00,71.6,67.9,30.07,SSW,196,0.0,0.0,88,0.00,,BKN060,0.00,0.00,VWS V14.01,2013-01-03 03:40:00,
2013-01-02 22:43:00,71.5,67.8,30.07,SSW,196,0.0,0.0,88,0.00,,BKN060,0.00,0.00,VWS V14.01,2013-01-03 03:43:00,
2013-01-02 22:45:00,71.5,67.8,30.07,SSW,196,0.0,0.0,88,0.00,,BKN060,0.00,0.00,VWS V14.01,2013-01-03 03:45:00,
2013-01-02 22:48:00,71.4,67.7,30.07,SSW,196,0.0,0.0,88,0.00,,BKN060,0.00,0.00,VWS V14.01,2013-01-03 03:48:00,
2013-01-02 22:50:00,71.4,67.7,30.08,SSW,196,0.0,0.0,88,0.00,,BKN060,0.00,0.00,VWS V14.01,2013-01-03 03:50:00,
2013-01-02 22:53:00,71.3,67.6,30.08,SSW,196,0.0,0.0,88,0.00,,BKN060,0.00,0.00,VWS V14.01,2013-01-03 03:53:00,
2013-01-02 22:55:00,71.3,67.6,30.08,SSW,196,0.0,0.0,88,0.00,,BKN060,0.00,0.00,VWS V14.01,2013-01-03 03:55:00,
2013-01-02 22:58:00,71.2,67.8,30.08,SSW,196,0.0,0.0,89,0.00,,BKN060,0.00,0.00,VWS V14.01,2013-01-03 03:58:00,
2013-01-02 23:00:00,71.2,67.8,30.08,SSW,196,0.0,0.0,89,0.00,,BKN060,0.00,0.00,VWS V14.01,2013-01-03 04:00:00,
2013-01-02 23:05:00,71.2,67.8,30.08,North,0,0.0,0.0,89,0.00,,BKN060,0.00,0.00,VWS V14.01,2013-01-03 04:05:00,
2013-01-02 23:10:00,71.2,67.8,30.08,North,0,0.0,0.0,89,0.00,,BKN060,0.00,0.00,VWS V14.01,2013-01-03 04:10:00,
2013-01-02 23:15:00,71.2,67.8,30.08,North,0,0.0,0.0,89,0.00,,BKN060,0.00,0.00,VWS V14.01,2013-01-03 04:15:00,
2013-01-02 23:20:00,71.2,67.8,30.08,North,0,0.0,0.0,89,0.00,,BKN060,0.00,0.00,VWS V14.01,2013-01-03 04:20:00,
2013-01-02 23:25:00,71.3,67.9,30.08,North,0,0.0,0.0,89,0.00,,BKN060,0.00,0.00,VWS V14.01,2013-01-03 04:25:00,
2013-01-02 23:30:00,71.3,67.9,30.08,North,0,0.0,0.0,89,0.00,,BKN060,0.00,0.00,VWS V14.01,2013-01-03 04:30:00,
2013-01-02 23:35:00,71.4,68.0,30.08,North,0,0.0,0.0,89,0.00,,BKN060,0.00,0.00,VWS V14.01,2013-01-03 04:35:00,
2013-01-02 23:40:00,71.3,67.9,30.07,North,0,0.0,0.0,89,0.00,,BKN060,0.00,0.00,VWS V14.01,2013-01-03 04:40:00,
2013-01-02 23:45:00,71.3,67.9,30.07,North,0,0.0,0.0,89,0.00,,BKN060,0.00,0.00,VWS V14.01,2013-01-03 04:45:00,
2013-01-02 23:50:00,71.2,67.8,30.07,North,0,0.0,0.0,89,0.00,,BKN060,0.00,0.00,VWS V14.01,2013-01-03 04:50:00,
2013-01-02 23:55:00,71.1,67.7,30.07,North,0,0.0,0.0,89,0.00,,BKN060,0.00,0.00,VWS V14.01,2013-01-03 04:55:00,